Time,TemperatureF,DewpointF,PressureIn,WindDirection,WindDirectionDegrees,WindSpeedMPH,WindSpeedGustMPH,Humidity,HourlyPrecipIn,Conditions,Clouds,dailyrainin,SoftwareType,DateUTC
2013-02-12 00:00:00,41.9,41.1,29.58,NNW,346,0.0,0.0,97,0.00,,SKC,0.00,VWS V14.01,2013-02-12 05:00:00,
2013-02-12 00:05:00,41.9,41.1,29.58,WNW,298,0.0,0.0,97,0.00,,SKC,0.00,VWS V14.01,2013-02-12 05:05:00,
2013-02-12 00:06:00,41.9,41.1,29.58,WNW,294,0.0,0.0,97,0.00,,SKC,0.00,VWS V14.01,2013-02-12 05:06:00,
2013-02-12 00:10:00,41.8,41.0,29.58,WNW,295,0.0,0.0,97,0.00,,SKC,0.00,VWS V14.01,2013-02-12 05:10:00,
2013-02-12 00:11:00,41.6,40.5,29.58,WNW,298,0.0,0.0,96,0.00,,SKC,0.00,VWS V14.01,2013-02-12 05:11:00,
2013-02-12 00:15:00,41.3,40.2,29.58,North,349,0.0,0.0,96,0.00,,SKC,0.00,VWS V14.01,2013-02-12 05:15:00,
2013-02-12 00:16:00,41.3,40.2,29.58,North,349,0.0,0.0,96,0.00,,SKC,0.00,VWS V14.01,2013-02-12 05:16:00,
2013-02-12 00:17:00,41.3,40.2,29.58,North,349,0.0,0.0,96,0.00,,SKC,0.00,VWS V14.01,2013-02-12 05:17:00,
2013-02-12 00:20:00,41.3,40.2,29.58,West,280,0.0,0.0,96,0.00,,SKC,0.00,VWS V14.01,2013-02-12 05:20:00,
2013-02-12 00:21:00,41.3,40.2,29.58,North,350,5.0,5.0,96,0.00,,SKC,0.00,VWS V14.01,2013-02-12 05:21:00,
2013-02-12 00:22:00,41.3,40.2,29.58,North,350,5.0,5.0,96,0.00,,SKC,0.00,VWS V14.01,2013-02-12 05:22:00,
2013-02-12 00:25:00,41.3,40.2,29.58,North,350,5.0,5.0,96,0.00,,SKC,0.00,VWS V14.01,2013-02-12 05:25:00,
2013-02-12 00:26:00,41.3,40.2,29.58,NW,326,3.0,5.0,96,0.00,,SKC,0.00,VWS V14.01,2013-02-12 05:26:00,
2013-02-12 00:27:00,41.2,40.2,29.58,WNW,291,0.0,6.0,96,0.00,,SKC,0.00,VWS V14.01,2013-02-12 05:27:00,
2013-02-12 00:30:00,41.1,40.0,29.57,NW,316,3.0,6.0,96,0.00,,SKC,0.00,VWS V14.01,2013-02-12 05:30:00,
2013-02-12 00:31:00,41.1,40.0,29.57,NW,319,5.0,5.0,96,0.00,,SKC,0.00,VWS V14.01,2013-02-12 05:31:00,
2013-02-12 00:32:00,41.1,40.0,29.57,NW,304,1.0,5.0,96,0.00,,SKC,0.00,VWS V14.01,2013-02-12 05:32:00,
2013-02-12 00:35:00,41.1,40.0,29.57,NNW,343,0.0,11.0,96,0.00,,SKC,0.00,VWS V14.01,2013-02-12 05:35:00,
2013-02-12 00:36:00,41.1,40.0,29.57,NNW,339,0.0,8.0,96,0.00,,SKC,0.00,VWS V14.01,2013-02-12 05:36:00,
2013-02-12 00:37:00,41.1,40.0,29.57,NNW,339,0.0,8.0,96,0.00,,SKC,0.00,VWS V14.01,2013-02-12 05:37:00,
2013-02-12 00:38:00,41.1,40.0,29.57,NNW,340,0.0,8.0,96,0.00,,SKC,0.00,VWS V14.01,2013-02-12 05:38:00,
2013-02-12 00:40:00,40.9,39.8,29.57,NW,305,1.0,8.0,96,0.00,,SKC,0.00,VWS V14.01,2013-02-12 05:40:00,
2013-02-12 00:41:00,40.9,39.8,29.57,NNW,343,1.0,1.0,96,0.00,,SKC,0.00,VWS V14.01,2013-02-12 05:41:00,
2013-02-12 00:42:00,40.8,39.8,29.57,NNW,343,0.0,1.0,96,0.00,,SKC,0.00,VWS V14.01,2013-02-12 05:42:00,
2013-02-12 00:43:00,40.8,39.8,29.57,WNW,301,0.0,1.0,96,0.00,,SKC,0.00,VWS V14.01,2013-02-12 05:43:00,
2013-02-12 00:44:00,40.6,39.5,29.58,NW,304,0.0,1.0,96,0.00,,SKC,0.00,VWS V14.01,2013-02-12 05:44:00,
2013-02-12 00:45:00,40.6,39.5,29.58,NW,325,7.0,10.0,96,0.00,,SKC,0.00,VWS V14.01,2013-02-12 05:45:00,
2013-02-12 00:46:00,40.6,39.5,29.58,NNW,333,0.0,7.0,96,0.00,,SKC,0.00,VWS V14.01,2013-02-12 05:46:00,
2013-02-12 00:47:00,40.5,39.2,29.58,NNW,335,1.0,7.0,95,0.00,,SKC,0.00,VWS V14.01,2013-02-12 05:47:00,
2013-02-12 00:48:00,40.5,39.2,29.58,NNW,332,1.0,7.0,95,0.00,,SKC,0.00,VWS V14.01,2013-02-12 05:48:00,
2013-02-12 00:49:00,40.5,39.2,29.58,NNW,335,0.0,7.0,95,0.00,,SKC,0.00,VWS V14.01,2013-02-12 05:49:00,
2013-02-12 00:50:00,40.5,39.2,29.58,NNW,335,0.0,7.0,95,0.00,,SKC,0.00,VWS V14.01,2013-02-12 05:50:00,
2013-02-12 00:51:00,40.5,39.2,29.58,NNW,336,0.0,0.0,95,0.00,,SKC,0.00,VWS V14.01,2013-02-12 05:51:00,
2013-02-12 00:52:00,40.5,39.2,29.58,NNW,336,0.0,0.0,95,0.00,,SKC,0.00,VWS V14.01,2013-02-12 05:52:00,
2013-02-12 00:53:00,40.5,39.2,29.58,NNW,336,0.0,0.0,95,0.00,,SKC,0.00,VWS V14.01,2013-02-12 05:53:00,
2013-02-12 00:54:00,40.5,39.2,29.58,NNW,336,0.0,0.0,95,0.00,,SKC,0.00,VWS V14.01,2013-02-12 05:54:00,
2013-02-12 00:55:00,40.5,39.2,29.58,NNW,336,0.0,0.0,95,0.00,,SKC,0.00,VWS V14.01,2013-02-12 05:55:00,
2013-02-12 00:57:00,40.3,39.0,29.58,SE,141,0.0,1.0,95,0.00,,SKC,0.00,VWS V14.01,2013-02-12 05:57:00,
2013-02-12 00:58:00,40.3,39.0,29.58,SE,145,0.0,1.0,95,0.00,,SKC,0.00,VWS V14.01,2013-02-12 05:58:00,
2013-02-12 00:59:00,40.3,39.0,29.58,SE,144,0.0,1.0,95,0.00,,SKC,0.00,VWS V14.01,2013-02-12 05:59:00,
2013-02-12 01:00:00,40.3,39.0,29.58,SE,144,0.0,1.0,95,0.00,,SKC,0.00,VWS V14.01,2013-02-12 06:00:00,
2013-02-12 01:02:00,40.2,38.9,29.58,SE,143,0.0,0.0,95,0.00,,SKC,0.00,VWS V14.01,2013-02-12 06:02:00,
2013-02-12 01:03:00,40.2,38.6,29.58,SE,145,0.0,0.0,94,0.00,,SKC,0.00,VWS V14.01,2013-02-12 06:03:00,
2013-02-12 01:04:00,40.2,38.6,29.58,SE,145,0.0,0.0,94,0.00,,SKC,0.00,VWS V14.01,2013-02-12 06:04:00,
2013-02-12 01:05:00,40.2,38.6,29.58,SSE,147,0.0,0.0,94,0.00,,SKC,0.00,VWS V14.01,2013-02-12 06:05:00,
2013-02-12 01:07:00,40.2,38.6,29.58,SE,144,0.0,0.0,94,0.00,,SKC,0.00,VWS V14.01,2013-02-12 06:07:00,
2013-02-12 01:09:00,40.1,38.5,29.58,SSE,148,0.0,0.0,94,0.00,,SKC,0.00,VWS V14.01,2013-02-12 06:09:00,
2013-02-12 01:10:00,39.9,38.3,29.58,SSE,148,0.0,0.0,94,0.00,,SKC,0.00,VWS V14.01,2013-02-12 06:10:00,
2013-02-12 01:12:00,39.6,38.0,29.58,SE,145,1.0,2.0,94,0.00,,SKC,0.00,VWS V14.01,2013-02-12 06:12:00,
2013-02-12 01:15:00,39.3,37.7,29.58,SSE,150,0.0,0.0,94,0.00,,SKC,0.00,VWS V14.01,2013-02-12 06:15:00,
2013-02-12 01:17:00,39.2,37.6,29.58,SSE,148,0.0,0.0,94,0.00,,SKC,0.00,VWS V14.01,2013-02-12 06:17:00,
2013-02-12 01:20:00,39.1,37.5,29.58,SSE,150,0.0,0.0,94,0.00,,SKC,0.00,VWS V14.01,2013-02-12 06:20:00,
2013-02-12 01:21:00,39.1,37.5,29.58,SSE,150,0.0,0.0,94,0.00,,SKC,0.00,VWS V14.01,2013-02-12 06:21:00,
2013-02-12 01:23:00,38.9,37.3,29.58,SSE,148,0.0,0.0,94,0.00,,SKC,0.00,VWS V14.01,2013-02-12 06:23:00,
2013-02-12 01:25:00,38.9,37.3,29.58,SSE,148,0.0,0.0,94,0.00,,SKC,0.00,VWS V14.01,2013-02-12 06:25:00,
2013-02-12 01:26:00,38.9,37.3,29.58,SE,144,0.0,2.0,94,0.00,,SKC,0.00,VWS V14.01,2013-02-12 06:26:00,
2013-02-12 01:28:00,38.9,37.3,29.58,SE,145,0.0,2.0,94,0.00,,SKC,0.00,VWS V14.01,2013-02-12 06:28:00,
2013-02-12 01:30:00,38.8,37.0,29.58,SE,144,0.0,1.0,93,0.00,,SKC,0.00,VWS V14.01,2013-02-12 06:30:00,
2013-02-12 01:31:00,38.8,37.0,29.58,SE,145,0.0,1.0,93,0.00,,SKC,0.00,VWS V14.01,2013-02-12 06:31:00,
2013-02-12 01:33:00,38.8,37.0,29.58,SE,143,0.0,1.0,93,0.00,,SKC,0.00,VWS V14.01,2013-02-12 06:33:00,
2013-02-12 01:35:00,38.8,37.0,29.58,SSE,147,0.0,1.0,93,0.00,,SKC,0.00,VWS V14.01,2013-02-12 06:35:00,
2013-02-12 01:36:00,38.8,37.0,29.58,SE,145,0.0,0.0,93,0.00,,SKC,0.00,VWS V14.01,2013-02-12 06:36:00,
2013-02-12 01:38:00,38.6,36.8,29.58,SE,143,0.0,0.0,93,0.00,,SKC,0.00,VWS V14.01,2013-02-12 06:38:00,
2013-02-12 01:40:00,38.6,36.8,29.58,SE,144,0.0,0.0,93,0.00,,SKC,0.00,VWS V14.01,2013-02-12 06:40:00,
2013-02-12 01:41:00,38.6,36.8,29.58,SE,144,0.0,0.0,93,0.00,,SKC,0.00,VWS V14.01,2013-02-12 06:41:00,
2013-02-12 01:42:00,38.6,36.8,29.58,SE,143,0.0,0.0,93,0.00,,SKC,0.00,VWS V14.01,2013-02-12 06:42:00,
2013-02-12 01:43:00,38.5,36.7,29.58,SE,143,0.0,0.0,93,0.00,,SKC,0.00,VWS V14.01,2013-02-12 06:43:00,
2013-02-12 01:45:00,38.5,36.7,29.58,SE,141,0.0,0.0,93,0.00,,SKC,0.00,VWS V14.01,2013-02-12 06:45:00,
2013-02-12 01:46:00,38.5,36.7,29.58,SE,140,0.0,0.0,93,0.00,,SKC,0.00,VWS V14.01,2013-02-12 06:46:00,
2013-02-12 01:47:00,38.5,36.7,29.58,SE,141,0.0,0.0,93,0.00,,SKC,0.00,VWS V14.01,2013-02-12 06:47:00,
2013-02-12 01:49:00,38.5,36.7,29.58,SE,145,0.0,0.0,93,0.00,,SKC,0.00,VWS V14.01,2013-02-12 06:49:00,
2013-02-12 01:50:00,38.5,36.7,29.58,SE,145,0.0,0.0,93,0.00,,SKC,0.00,VWS V14.01,2013-02-12 06:50:00,
2013-02-12 01:52:00,38.0,36.2,29.58,SE,144,0.0,0.0,93,0.00,,SKC,0.00,VWS V14.01,2013-02-12 06:52:00,
2013-02-12 01:54:00,37.9,36.1,29.58,SE,144,0.0,0.0,93,0.00,,SKC,0.00,VWS V14.01,2013-02-12 06:54:00,
2013-02-12 01:55:00,37.9,36.1,29.58,SE,143,0.0,0.0,93,0.00,,SKC,0.00,VWS V14.01,2013-02-12 06:55:00,
2013-02-12 01:57:00,37.8,36.0,29.58,SE,143,0.0,0.0,93,0.00,,SKC,0.00,VWS V14.01,2013-02-12 06:57:00,
2013-02-12 01:59:00,37.8,35.7,29.59,SE,141,0.0,0.0,92,0.00,,SKC,0.00,VWS V14.01,2013-02-12 06:59:00,
2013-02-12 02:00:00,37.8,35.7,29.59,SE,141,0.0,0.0,92,0.00,,SKC,0.00,VWS V14.01,2013-02-12 07:00:00,
2013-02-12 02:02:00,37.8,35.7,29.59,SE,141,0.0,0.0,92,0.00,,SKC,0.00,VWS V14.01,2013-02-12 07:02:00,
2013-02-12 02:03:00,37.8,35.7,29.59,SE,141,0.0,0.0,92,0.00,,SKC,0.00,VWS V14.01,2013-02-12 07:03:00,
2013-02-12 02:04:00,37.8,35.7,29.59,SE,141,0.0,0.0,92,0.00,,SKC,0.00,VWS V14.01,2013-02-12 07:04:00,
2013-02-12 02:05:00,37.8,35.7,29.59,South,184,0.0,0.0,92,0.00,,SKC,0.00,VWS V14.01,2013-02-12 07:05:00,
2013-02-12 02:07:00,37.6,35.5,29.59,South,184,0.0,0.0,92,0.00,,SKC,0.00,VWS V14.01,2013-02-12 07:07:00,
2013-02-12 02:08:00,37.6,35.5,29.59,South,185,0.0,0.0,92,0.00,,SKC,0.00,VWS V14.01,2013-02-12 07:08:00,
2013-02-12 02:09:00,37.6,35.5,29.59,South,182,0.0,0.0,92,0.00,,SKC,0.00,VWS V14.01,2013-02-12 07:09:00,
2013-02-12 02:10:00,37.6,35.5,29.59,South,188,0.0,0.0,92,0.00,,SKC,0.00,VWS V14.01,2013-02-12 07:10:00,
2013-02-12 02:13:00,37.6,35.2,29.59,South,182,0.0,0.0,91,0.00,,SKC,0.00,VWS V14.01,2013-02-12 07:13:00,
2013-02-12 02:14:00,37.6,35.2,29.59,South,182,0.0,0.0,91,0.00,,SKC,0.00,VWS V14.01,2013-02-12 07:14:00,
2013-02-12 02:15:00,37.6,35.2,29.59,South,182,0.0,0.0,91,0.00,,SKC,0.00,VWS V14.01,2013-02-12 07:15:00,
2013-02-12 02:18:00,37.5,34.8,29.59,SSE,151,0.0,1.0,90,0.00,,SKC,0.00,VWS V14.01,2013-02-12 07:18:00,
2013-02-12 02:19:00,37.5,34.8,29.59,North,357,0.0,0.0,90,0.00,,SKC,0.00,VWS V14.01,2013-02-12 07:19:00,
2013-02-12 02:20:00,37.5,34.8,29.59,North,357,0.0,1.0,90,0.00,,SKC,0.00,VWS V14.01,2013-02-12 07:20:00,
2013-02-12 02:23:00,37.5,34.6,29.59,North,357,0.0,0.0,89,0.00,,SKC,0.00,VWS V14.01,2013-02-12 07:23:00,
2013-02-12 02:24:00,37.5,34.6,29.59,North,357,0.0,0.0,89,0.00,,SKC,0.00,VWS V14.01,2013-02-12 07:24:00,
2013-02-12 02:25:00,37.5,34.6,29.59,NNW,328,0.0,0.0,89,0.00,,SKC,0.00,VWS V14.01,2013-02-12 07:25:00,
2013-02-12 02:29:00,37.5,34.6,29.59,NNW,335,0.0,0.0,89,0.00,,SKC,0.00,VWS V14.01,2013-02-12 07:29:00,
2013-02-12 02:30:00,37.5,34.6,29.59,NNW,335,0.0,0.0,89,0.00,,SKC,0.00,VWS V14.01,2013-02-12 07:30:00,
2013-02-12 02:31:00,37.5,34.6,29.59,NNW,335,0.0,0.0,89,0.00,,SKC,0.00,VWS V14.01,2013-02-12 07:31:00,
2013-02-12 02:34:00,37.5,34.3,29.59,NNW,335,0.0,0.0,88,0.00,,SKC,0.00,VWS V14.01,2013-02-12 07:34:00,
2013-02-12 02:35:00,37.5,34.3,29.59,NNW,336,0.0,0.0,88,0.00,,SKC,0.00,VWS V14.01,2013-02-12 07:35:00,
2013-02-12 02:36:00,37.5,34.3,29.59,North,353,1.0,3.0,88,0.00,,SKC,0.00,VWS V14.01,2013-02-12 07:36:00,
2013-02-12 02:40:00,37.3,34.1,29.59,NNW,337,2.0,2.0,88,0.00,,SKC,0.00,VWS V14.01,2013-02-12 07:40:00,
2013-02-12 02:41:00,37.3,34.1,29.59,NW,325,1.0,6.0,88,0.00,,SKC,0.00,VWS V14.01,2013-02-12 07:41:00,
2013-02-12 02:45:00,37.0,33.2,29.60,SW,234,2.0,3.0,86,0.00,,SKC,0.00,VWS V14.01,2013-02-12 07:45:00,
2013-02-12 02:46:00,37.0,33.2,29.60,NNW,336,1.0,3.0,86,0.00,,SKC,0.00,VWS V14.01,2013-02-12 07:46:00,
2013-02-12 02:47:00,37.0,33.2,29.60,NNW,347,0.0,4.0,86,0.00,,SKC,0.00,VWS V14.01,2013-02-12 07:47:00,
2013-02-12 02:50:00,37.0,32.6,29.60,NW,326,2.0,2.0,84,0.00,,SKC,0.00,VWS V14.01,2013-02-12 07:50:00,
2013-02-12 02:51:00,36.9,32.5,29.60,NW,326,1.0,2.0,84,0.00,,SKC,0.00,VWS V14.01,2013-02-12 07:51:00,
2013-02-12 02:52:00,36.9,32.5,29.60,NNW,328,0.0,2.0,84,0.00,,SKC,0.00,VWS V14.01,2013-02-12 07:52:00,
2013-02-12 02:55:00,36.9,31.9,29.60,NNW,339,0.0,2.0,82,0.00,,SKC,0.00,VWS V14.01,2013-02-12 07:55:00,
2013-02-12 02:56:00,36.9,31.9,29.60,NNW,339,0.0,2.0,82,0.00,,SKC,0.00,VWS V14.01,2013-02-12 07:56:00,
2013-02-12 02:57:00,36.9,31.9,29.60,NNW,339,0.0,3.0,82,0.00,,SKC,0.00,VWS V14.01,2013-02-12 07:57:00,
2013-02-12 03:00:00,36.8,31.8,29.60,NNW,329,0.0,3.0,82,0.00,,SKC,0.00,VWS V14.01,2013-02-12 08:00:00,
2013-02-12 03:01:00,36.8,31.8,29.60,NNW,337,0.0,3.0,82,0.00,,SKC,0.00,VWS V14.01,2013-02-12 08:01:00,
2013-02-12 03:03:00,36.6,31.6,29.60,NW,319,0.0,7.0,82,0.00,,SKC,0.00,VWS V14.01,2013-02-12 08:03:00,
2013-02-12 03:05:00,36.8,31.8,29.60,NNW,342,0.0,2.0,82,0.00,,SKC,0.00,VWS V14.01,2013-02-12 08:05:00,
2013-02-12 03:06:00,36.8,31.8,29.60,NNW,339,4.0,4.0,82,0.00,,SKC,0.00,VWS V14.01,2013-02-12 08:06:00,
2013-02-12 03:07:00,36.6,31.0,29.60,NNW,330,0.0,4.0,80,0.00,,SKC,0.00,VWS V14.01,2013-02-12 08:07:00,
2013-02-12 03:08:00,36.6,31.0,29.60,NNW,332,0.0,4.0,80,0.00,,SKC,0.00,VWS V14.01,2013-02-12 08:08:00,
2013-02-12 03:10:00,36.6,31.0,29.60,NW,318,0.0,1.0,80,0.00,,SKC,0.00,VWS V14.01,2013-02-12 08:10:00,
2013-02-12 03:11:00,36.6,31.0,29.60,North,352,0.0,1.0,80,0.00,,SKC,0.00,VWS V14.01,2013-02-12 08:11:00,
2013-02-12 03:13:00,36.5,30.9,29.60,NNW,335,1.0,2.0,80,0.00,,SKC,0.00,VWS V14.01,2013-02-12 08:13:00,
2013-02-12 03:15:00,36.5,30.9,29.60,NNW,335,0.0,2.0,80,0.00,,SKC,0.00,VWS V14.01,2013-02-12 08:15:00,
2013-02-12 03:16:00,36.3,30.7,29.60,NNW,329,3.0,6.0,80,0.00,,SKC,0.00,VWS V14.01,2013-02-12 08:16:00,
2013-02-12 03:17:00,36.3,30.7,29.60,NNW,342,1.0,6.0,80,0.00,,SKC,0.00,VWS V14.01,2013-02-12 08:17:00,
2013-02-12 03:18:00,36.3,30.4,29.60,SE,141,2.0,6.0,79,0.00,,SKC,0.00,VWS V14.01,2013-02-12 08:18:00,
2013-02-12 03:19:00,36.3,30.4,29.60,SE,134,0.0,6.0,79,0.00,,SKC,0.00,VWS V14.01,2013-02-12 08:19:00,
2013-02-12 03:20:00,36.3,30.4,29.60,SE,134,0.0,6.0,79,0.00,,SKC,0.00,VWS V14.01,2013-02-12 08:20:00,
2013-02-12 03:21:00,36.3,30.4,29.60,SE,138,0.0,0.0,79,0.00,,SKC,0.00,VWS V14.01,2013-02-12 08:21:00,
2013-02-12 03:22:00,36.2,30.3,29.60,NW,320,1.0,2.0,79,0.00,,SKC,0.00,VWS V14.01,2013-02-12 08:22:00,
2013-02-12 03:24:00,36.2,30.3,29.60,NW,319,2.0,2.0,79,0.00,,SKC,0.00,VWS V14.01,2013-02-12 08:24:00,
2013-02-12 03:25:00,36.2,30.3,29.60,NW,319,2.0,2.0,79,0.00,,SKC,0.00,VWS V14.01,2013-02-12 08:25:00,
2013-02-12 03:26:00,36.2,30.3,29.60,NW,320,0.0,2.0,79,0.00,,SKC,0.00,VWS V14.01,2013-02-12 08:26:00,
2013-02-12 03:27:00,36.2,30.3,29.60,NNW,347,0.0,2.0,79,0.00,,SKC,0.00,VWS V14.01,2013-02-12 08:27:00,
2013-02-12 03:29:00,36.2,30.3,29.61,NNW,335,0.0,2.0,79,0.00,,SKC,0.00,VWS V14.01,2013-02-12 08:29:00,
2013-02-12 03:30:00,36.0,29.8,29.61,WSW,248,0.0,0.0,78,0.00,,SKC,0.00,VWS V14.01,2013-02-12 08:30:00,
2013-02-12 03:31:00,36.0,29.8,29.61,North,357,1.0,2.0,78,0.00,,SKC,0.00,VWS V14.01,2013-02-12 08:31:00,
2013-02-12 03:32:00,36.0,29.8,29.61,North,357,0.0,2.0,78,0.00,,SKC,0.00,VWS V14.01,2013-02-12 08:32:00,
2013-02-12 03:34:00,36.0,29.8,29.61,North,357,0.0,2.0,78,0.00,,SKC,0.00,VWS V14.01,2013-02-12 08:34:00,
2013-02-12 03:35:00,35.9,29.7,29.61,NNW,336,0.0,5.0,78,0.00,,SKC,0.00,VWS V14.01,2013-02-12 08:35:00,
2013-02-12 03:36:00,35.9,29.7,29.61,NNW,336,0.0,5.0,78,0.00,,SKC,0.00,VWS V14.01,2013-02-12 08:36:00,
2013-02-12 03:37:00,35.9,29.7,29.61,NNW,336,0.0,5.0,78,0.00,,SKC,0.00,VWS V14.01,2013-02-12 08:37:00,
2013-02-12 03:39:00,35.9,29.7,29.61,NNW,336,0.0,5.0,78,0.00,,SKC,0.00,VWS V14.01,2013-02-12 08:39:00,
2013-02-12 03:40:00,35.9,29.7,29.61,SE,143,0.0,0.0,78,0.00,,SKC,0.00,VWS V14.01,2013-02-12 08:40:00,
2013-02-12 03:42:00,35.9,29.7,29.61,North,357,0.0,2.0,78,0.00,,SKC,0.00,VWS V14.01,2013-02-12 08:42:00,
2013-02-12 03:44:00,35.9,29.7,29.62,North,357,0.0,0.0,78,0.00,,SKC,0.00,VWS V14.01,2013-02-12 08:44:00,
2013-02-12 03:45:00,35.8,29.6,29.62,North,357,0.0,0.0,78,0.00,,SKC,0.00,VWS V14.01,2013-02-12 08:45:00,
2013-02-12 03:47:00,35.8,29.6,29.62,North,357,0.0,0.0,78,0.00,,SKC,0.00,VWS V14.01,2013-02-12 08:47:00,
2013-02-12 03:50:00,35.8,29.6,29.62,North,357,0.0,0.0,78,0.00,,SKC,0.00,VWS V14.01,2013-02-12 08:50:00,
2013-02-12 03:52:00,35.6,29.4,29.62,North,357,0.0,0.0,78,0.00,,SKC,0.00,VWS V14.01,2013-02-12 08:52:00,
2013-02-12 03:55:00,35.5,29.6,29.62,North,357,0.0,0.0,79,0.00,,SKC,0.00,VWS V14.01,2013-02-12 08:55:00,
2013-02-12 03:56:00,35.3,29.5,29.62,North,357,0.0,0.0,79,0.00,,SKC,0.00,VWS V14.01,2013-02-12 08:56:00,
2013-02-12 03:57:00,35.2,29.4,29.62,North,357,0.0,0.0,79,0.00,,SKC,0.00,VWS V14.01,2013-02-12 08:57:00,
2013-02-12 04:00:00,35.2,29.4,29.62,North,357,0.0,0.0,79,0.00,,SKC,0.00,VWS V14.01,2013-02-12 09:00:00,
2013-02-12 04:01:00,35.0,29.5,29.62,North,357,0.0,0.0,80,0.00,,SKC,0.00,VWS V14.01,2013-02-12 09:01:00,
2013-02-12 04:02:00,35.0,29.5,29.62,North,357,0.0,0.0,80,0.00,,SKC,0.00,VWS V14.01,2013-02-12 09:02:00,
2013-02-12 04:05:00,34.9,29.7,29.62,North,357,0.0,0.0,81,0.00,,SKC,0.00,VWS V14.01,2013-02-12 09:05:00,
2013-02-12 04:06:00,34.7,29.5,29.62,North,357,0.0,0.0,81,0.00,,SKC,0.00,VWS V14.01,2013-02-12 09:06:00,
2013-02-12 04:07:00,34.7,29.5,29.62,North,357,0.0,0.0,81,0.00,,SKC,0.00,VWS V14.01,2013-02-12 09:07:00,
2013-02-12 04:08:00,34.7,29.5,29.62,North,357,0.0,0.0,81,0.00,,SKC,0.00,VWS V14.01,2013-02-12 09:08:00,
2013-02-12 04:10:00,34.7,29.5,29.62,North,357,0.0,0.0,81,0.00,,SKC,0.00,VWS V14.01,2013-02-12 09:10:00,
2013-02-12 04:12:00,34.6,29.4,29.62,North,357,0.0,0.0,81,0.00,,SKC,0.00,VWS V14.01,2013-02-12 09:12:00,
2013-02-12 04:13:00,34.6,29.4,29.62,North,357,0.0,0.0,81,0.00,,SKC,0.00,VWS V14.01,2013-02-12 09:13:00,
2013-02-12 04:15:00,34.6,29.4,29.62,North,357,0.0,0.0,81,0.00,,SKC,0.00,VWS V14.01,2013-02-12 09:15:00,
2013-02-12 04:17:00,34.6,29.4,29.62,North,357,0.0,0.0,81,0.00,,SKC,0.00,VWS V14.01,2013-02-12 09:17:00,
2013-02-12 04:18:00,34.6,29.4,29.62,North,357,0.0,0.0,81,0.00,,SKC,0.00,VWS V14.01,2013-02-12 09:18:00,
2013-02-12 04:20:00,34.6,29.4,29.62,North,357,0.0,0.0,81,0.00,,SKC,0.00,VWS V14.01,2013-02-12 09:20:00,
2013-02-12 04:22:00,34.4,29.2,29.62,North,357,0.0,0.0,81,0.00,,SKC,0.00,VWS V14.01,2013-02-12 09:22:00,
2013-02-12 04:23:00,34.3,29.1,29.62,North,357,0.0,0.0,81,0.00,,SKC,0.00,VWS V14.01,2013-02-12 09:23:00,
2013-02-12 04:25:00,34.3,29.1,29.62,North,357,0.0,0.0,81,0.00,,SKC,0.00,VWS V14.01,2013-02-12 09:25:00,
2013-02-12 04:27:00,34.3,29.4,29.62,North,357,0.0,0.0,82,0.00,,SKC,0.00,VWS V14.01,2013-02-12 09:27:00,
2013-02-12 04:28:00,34.3,29.4,29.62,North,357,0.0,0.0,82,0.00,,SKC,0.00,VWS V14.01,2013-02-12 09:28:00,
2013-02-12 04:30:00,34.3,29.4,29.62,North,357,0.0,0.0,82,0.00,,SKC,0.00,VWS V14.01,2013-02-12 09:30:00,
2013-02-12 04:32:00,34.3,29.7,29.62,North,357,0.0,0.0,83,0.00,,SKC,0.00,VWS V14.01,2013-02-12 09:32:00,
2013-02-12 04:33:00,34.3,29.7,29.62,North,357,0.0,0.0,83,0.00,,SKC,0.00,VWS V14.01,2013-02-12 09:33:00,
2013-02-12 04:34:00,34.3,29.7,29.62,North,357,0.0,0.0,83,0.00,,SKC,0.00,VWS V14.01,2013-02-12 09:34:00,
2013-02-12 04:35:00,34.3,29.4,29.62,North,357,0.0,0.0,82,0.00,,SKC,0.00,VWS V14.01,2013-02-12 09:35:00,
2013-02-12 04:37:00,34.3,29.7,29.62,North,357,0.0,0.0,83,0.00,,SKC,0.00,VWS V14.01,2013-02-12 09:37:00,
2013-02-12 04:38:00,34.3,29.7,29.62,North,357,0.0,0.0,83,0.00,,SKC,0.00,VWS V14.01,2013-02-12 09:38:00,
2013-02-12 04:39:00,34.3,29.7,29.62,North,357,0.0,0.0,83,0.00,,SKC,0.00,VWS V14.01,2013-02-12 09:39:00,
2013-02-12 04:40:00,34.3,29.7,29.62,North,357,0.0,0.0,83,0.00,,SKC,0.00,VWS V14.01,2013-02-12 09:40:00,
2013-02-12 04:43:00,34.1,29.5,29.62,North,357,0.0,0.0,83,0.00,,SKC,0.00,VWS V14.01,2013-02-12 09:43:00,
2013-02-12 04:44:00,34.1,29.5,29.63,North,357,0.0,0.0,83,0.00,,SKC,0.00,VWS V14.01,2013-02-12 09:44:00,
2013-02-12 04:45:00,34.0,29.4,29.63,North,357,0.0,0.0,83,0.00,,SKC,0.00,VWS V14.01,2013-02-12 09:45:00,
2013-02-12 04:48:00,34.0,29.4,29.63,North,357,0.0,0.0,83,0.00,,SKC,0.00,VWS V14.01,2013-02-12 09:48:00,
2013-02-12 04:49:00,34.0,29.4,29.63,North,357,0.0,0.0,83,0.00,,SKC,0.00,VWS V14.01,2013-02-12 09:49:00,
2013-02-12 04:50:00,34.0,29.4,29.63,North,357,0.0,0.0,83,0.00,,SKC,0.00,VWS V14.01,2013-02-12 09:50:00,
2013-02-12 04:54:00,33.8,29.2,29.63,North,357,0.0,2.0,83,0.00,,SKC,0.00,VWS V14.01,2013-02-12 09:54:00,
2013-02-12 04:55:00,33.8,29.2,29.63,North,357,0.0,0.0,83,0.00,,SKC,0.00,VWS V14.01,2013-02-12 09:55:00,
2013-02-12 04:56:00,33.8,29.2,29.63,North,357,0.0,0.0,83,0.00,,SKC,0.00,VWS V14.01,2013-02-12 09:56:00,
2013-02-12 04:59:00,33.8,29.2,29.63,North,357,0.0,0.0,83,0.00,,SKC,0.00,VWS V14.01,2013-02-12 09:59:00,
2013-02-12 05:00:00,33.8,29.2,29.63,North,357,0.0,0.0,83,0.00,,SKC,0.00,VWS V14.01,2013-02-12 10:00:00,
2013-02-12 05:01:00,33.8,29.2,29.63,North,357,0.0,0.0,83,0.00,,SKC,0.00,VWS V14.01,2013-02-12 10:01:00,
2013-02-12 05:04:00,33.7,29.1,29.63,North,357,0.0,0.0,83,0.00,,SKC,0.00,VWS V14.01,2013-02-12 10:04:00,
2013-02-12 05:05:00,33.7,29.1,29.63,North,357,0.0,0.0,83,0.00,,SKC,0.00,VWS V14.01,2013-02-12 10:05:00,
2013-02-12 05:06:00,33.7,29.1,29.63,North,357,0.0,0.0,83,0.00,,SKC,0.00,VWS V14.01,2013-02-12 10:06:00,
2013-02-12 05:07:00,33.7,29.1,29.63,North,357,0.0,0.0,83,0.00,,SKC,0.00,VWS V14.01,2013-02-12 10:07:00,
2013-02-12 05:09:00,33.7,29.1,29.63,North,357,0.0,0.0,83,0.00,,SKC,0.00,VWS V14.01,2013-02-12 10:09:00,
2013-02-12 05:10:00,33.7,29.1,29.63,North,357,0.0,0.0,83,0.00,,SKC,0.00,VWS V14.01,2013-02-12 10:10:00,
2013-02-12 05:11:00,33.7,29.1,29.63,North,357,0.0,0.0,83,0.00,,SKC,0.00,VWS V14.01,2013-02-12 10:11:00,
2013-02-12 05:12:00,33.5,28.9,29.63,North,357,0.0,0.0,83,0.00,,SKC,0.00,VWS V14.01,2013-02-12 10:12:00,
2013-02-12 05:14:00,33.5,28.9,29.63,North,357,0.0,0.0,83,0.00,,SKC,0.00,VWS V14.01,2013-02-12 10:14:00,
2013-02-12 05:15:00,33.5,28.9,29.63,North,357,0.0,0.0,83,0.00,,SKC,0.00,VWS V14.01,2013-02-12 10:15:00,
2013-02-12 05:17:00,33.5,28.9,29.63,North,357,0.0,0.0,83,0.00,,SKC,0.00,VWS V14.01,2013-02-12 10:17:00,
2013-02-12 05:19:00,33.5,28.9,29.63,North,357,0.0,0.0,83,0.00,,SKC,0.00,VWS V14.01,2013-02-12 10:19:00,
2013-02-12 05:20:00,33.5,28.9,29.63,North,357,0.0,0.0,83,0.00,,SKC,0.00,VWS V14.01,2013-02-12 10:20:00,
2013-02-12 05:21:00,33.5,28.9,29.63,North,357,0.0,0.0,83,0.00,,SKC,0.00,VWS V14.01,2013-02-12 10:21:00,
2013-02-12 05:22:00,33.5,28.9,29.63,WNW,301,0.0,0.0,83,0.00,,SKC,0.00,VWS V14.01,2013-02-12 10:22:00,
2013-02-12 05:24:00,33.5,28.6,29.63,NW,311,0.0,0.0,82,0.00,,SKC,0.00,VWS V14.01,2013-02-12 10:24:00,
2013-02-12 05:25:00,33.5,28.6,29.63,NW,309,0.0,3.0,82,0.00,,SKC,0.00,VWS V14.01,2013-02-12 10:25:00,
2013-02-12 05:26:00,33.5,28.6,29.63,NW,316,0.0,0.0,82,0.00,,SKC,0.00,VWS V14.01,2013-02-12 10:26:00,
2013-02-12 05:27:00,33.5,28.6,29.63,NW,315,0.0,0.0,82,0.00,,SKC,0.00,VWS V14.01,2013-02-12 10:27:00,
2013-02-12 05:28:00,33.5,28.6,29.63,NW,318,0.0,0.0,82,0.00,,SKC,0.00,VWS V14.01,2013-02-12 10:28:00,
2013-02-12 05:29:00,33.5,28.6,29.63,NW,316,0.0,0.0,82,0.00,,SKC,0.00,VWS V14.01,2013-02-12 10:29:00,
2013-02-12 05:30:00,33.5,28.6,29.63,NW,316,0.0,0.0,82,0.00,,SKC,0.00,VWS V14.01,2013-02-12 10:30:00,
2013-02-12 05:32:00,33.7,28.5,29.63,NW,323,0.0,2.0,81,0.00,,SKC,0.00,VWS V14.01,2013-02-12 10:32:00,
2013-02-12 05:33:00,33.7,28.5,29.63,NW,323,0.0,2.0,81,0.00,,SKC,0.00,VWS V14.01,2013-02-12 10:33:00,
2013-02-12 05:35:00,33.8,28.3,29.63,NW,323,0.0,0.0,80,0.00,,SKC,0.00,VWS V14.01,2013-02-12 10:35:00,
2013-02-12 05:37:00,33.8,28.3,29.63,NW,325,0.0,0.0,80,0.00,,SKC,0.00,VWS V14.01,2013-02-12 10:37:00,
2013-02-12 05:38:00,34.0,28.5,29.63,WNW,288,0.0,0.0,80,0.00,,SKC,0.00,VWS V14.01,2013-02-12 10:38:00,
2013-02-12 05:40:00,34.0,28.2,29.63,WNW,289,0.0,0.0,79,0.00,,SKC,0.00,VWS V14.01,2013-02-12 10:40:00,
2013-02-12 05:43:00,34.0,28.2,29.63,WNW,291,2.0,2.0,79,0.00,,SKC,0.00,VWS V14.01,2013-02-12 10:43:00,
2013-02-12 05:45:00,34.1,28.3,29.63,WNW,289,0.0,0.0,79,0.00,,SKC,0.00,VWS V14.01,2013-02-12 10:45:00,
2013-02-12 05:48:00,34.1,28.3,29.63,WNW,292,0.0,0.0,79,0.00,,SKC,0.00,VWS V14.01,2013-02-12 10:48:00,
2013-02-12 05:49:00,34.1,28.3,29.63,WNW,291,0.0,0.0,79,0.00,,SKC,0.00,VWS V14.01,2013-02-12 10:49:00,
2013-02-12 05:50:00,34.1,28.3,29.63,WNW,289,0.0,0.0,79,0.00,,SKC,0.00,VWS V14.01,2013-02-12 10:50:00,
2013-02-12 05:51:00,34.1,28.3,29.63,WNW,289,0.0,0.0,79,0.00,,SKC,0.00,VWS V14.01,2013-02-12 10:51:00,
2013-02-12 05:54:00,34.0,28.2,29.63,WNW,289,0.0,0.0,79,0.00,,SKC,0.00,VWS V14.01,2013-02-12 10:54:00,
2013-02-12 05:55:00,34.0,28.2,29.63,WNW,291,0.0,0.0,79,0.00,,SKC,0.00,VWS V14.01,2013-02-12 10:55:00,
2013-02-12 05:56:00,34.0,28.2,29.63,WNW,291,0.0,0.0,79,0.00,,SKC,0.00,VWS V14.01,2013-02-12 10:56:00,
2013-02-12 05:59:00,34.0,28.2,29.63,WNW,291,0.0,0.0,79,0.00,,SKC,0.00,VWS V14.01,2013-02-12 10:59:00,
2013-02-12 06:00:00,34.0,28.2,29.63,WNW,291,0.0,0.0,79,0.00,,SKC,0.00,VWS V14.01,2013-02-12 11:00:00,
2013-02-12 06:01:00,34.0,28.2,29.63,WNW,291,0.0,0.0,79,0.00,,SKC,0.00,VWS V14.01,2013-02-12 11:01:00,
2013-02-12 06:04:00,33.8,28.0,29.63,WNW,292,0.0,0.0,79,0.00,,SKC,0.00,VWS V14.01,2013-02-12 11:04:00,
2013-02-12 06:05:00,33.8,28.0,29.63,WNW,291,0.0,0.0,79,0.00,,SKC,0.00,VWS V14.01,2013-02-12 11:05:00,
2013-02-12 06:06:00,33.8,28.0,29.63,WNW,289,0.0,0.0,79,0.00,,SKC,0.00,VWS V14.01,2013-02-12 11:06:00,
2013-02-12 06:09:00,33.7,27.9,29.63,WNW,292,0.0,0.0,79,0.00,,SKC,0.00,VWS V14.01,2013-02-12 11:09:00,
2013-02-12 06:10:00,33.7,27.9,29.63,WNW,291,0.0,0.0,79,0.00,,SKC,0.00,VWS V14.01,2013-02-12 11:10:00,
2013-02-12 06:11:00,33.7,27.9,29.63,WNW,292,0.0,0.0,79,0.00,,SKC,0.00,VWS V14.01,2013-02-12 11:11:00,
2013-02-12 06:12:00,33.7,27.9,29.63,WNW,291,0.0,0.0,79,0.00,,SKC,0.00,VWS V14.01,2013-02-12 11:12:00,
2013-02-12 06:15:00,33.5,27.7,29.65,WNW,291,0.0,0.0,79,0.00,,SKC,0.00,VWS V14.01,2013-02-12 11:15:00,
2013-02-12 06:16:00,33.4,27.6,29.65,WNW,289,0.0,0.0,79,0.00,,SKC,0.00,VWS V14.01,2013-02-12 11:16:00,
2013-02-12 06:17:00,33.4,27.6,29.65,WNW,294,0.0,0.0,79,0.00,,SKC,0.00,VWS V14.01,2013-02-12 11:17:00,
2013-02-12 06:20:00,33.4,27.9,29.65,WNW,289,0.0,0.0,80,0.00,,SKC,0.00,VWS V14.01,2013-02-12 11:20:00,
2013-02-12 06:21:00,33.4,27.9,29.65,WNW,292,0.0,0.0,80,0.00,,SKC,0.00,VWS V14.01,2013-02-12 11:21:00,
2013-02-12 06:22:00,33.4,27.9,29.65,WNW,291,0.0,0.0,80,0.00,,SKC,0.00,VWS V14.01,2013-02-12 11:22:00,
2013-02-12 06:23:00,33.4,27.9,29.65,WNW,289,0.0,0.0,80,0.00,,SKC,0.00,VWS V14.01,2013-02-12 11:23:00,
2013-02-12 06:25:00,33.4,27.6,29.65,WNW,291,0.0,0.0,79,0.00,,SKC,0.00,VWS V14.01,2013-02-12 11:25:00,
2013-02-12 06:27:00,33.4,27.6,29.65,WNW,291,0.0,0.0,79,0.00,,SKC,0.00,VWS V14.01,2013-02-12 11:27:00,
2013-02-12 06:28:00,33.2,27.4,29.65,WNW,291,0.0,0.0,79,0.00,,SKC,0.00,VWS V14.01,2013-02-12 11:28:00,
2013-02-12 06:30:00,33.2,27.4,29.65,WNW,292,0.0,0.0,79,0.00,,SKC,0.00,VWS V14.01,2013-02-12 11:30:00,
2013-02-12 06:31:00,33.2,27.4,29.65,WNW,291,0.0,0.0,79,0.00,,SKC,0.00,VWS V14.01,2013-02-12 11:31:00,
2013-02-12 06:32:00,33.2,27.7,29.65,WNW,292,0.0,0.0,80,0.00,,SKC,0.00,VWS V14.01,2013-02-12 11:32:00,
2013-02-12 06:33:00,33.1,27.9,29.65,WNW,289,0.0,0.0,81,0.00,,SKC,0.00,VWS V14.01,2013-02-12 11:33:00,
2013-02-12 06:34:00,33.1,27.9,29.65,WNW,291,0.0,0.0,81,0.00,,SKC,0.00,VWS V14.01,2013-02-12 11:34:00,
2013-02-12 06:35:00,33.1,27.9,29.65,WNW,291,0.0,0.0,81,0.00,,SKC,0.00,VWS V14.01,2013-02-12 11:35:00,
2013-02-12 06:36:00,33.1,27.9,29.65,WNW,291,0.0,0.0,81,0.00,,SKC,0.00,VWS V14.01,2013-02-12 11:36:00,
2013-02-12 06:37:00,33.1,27.9,29.65,WNW,294,0.0,1.0,81,0.00,,SKC,0.00,VWS V14.01,2013-02-12 11:37:00,
2013-02-12 06:39:00,33.1,27.9,29.65,WNW,294,0.0,1.0,81,0.00,,SKC,0.00,VWS V14.01,2013-02-12 11:39:00,
2013-02-12 06:40:00,33.1,27.9,29.65,WNW,295,0.0,1.0,81,0.00,,SKC,0.00,VWS V14.01,2013-02-12 11:40:00,
2013-02-12 06:42:00,33.1,27.9,29.65,WNW,294,0.0,0.0,81,0.00,,SKC,0.00,VWS V14.01,2013-02-12 11:42:00,
2013-02-12 06:44:00,33.1,27.9,29.64,WNW,295,0.0,0.0,81,0.00,,SKC,0.00,VWS V14.01,2013-02-12 11:44:00,
2013-02-12 06:45:00,33.1,27.9,29.64,WNW,295,0.0,0.0,81,0.00,,SKC,0.00,VWS V14.01,2013-02-12 11:45:00,
2013-02-12 06:47:00,33.1,27.9,29.64,WNW,295,0.0,0.0,81,0.00,,SKC,0.00,VWS V14.01,2013-02-12 11:47:00,
2013-02-12 06:49:00,33.1,27.6,29.64,WNW,298,0.0,1.0,80,0.00,,SKC,0.00,VWS V14.01,2013-02-12 11:49:00,
2013-02-12 06:50:00,33.1,27.6,29.64,WNW,296,0.0,0.0,80,0.00,,SKC,0.00,VWS V14.01,2013-02-12 11:50:00,
2013-02-12 06:52:00,33.2,27.7,29.64,WNW,298,0.0,0.0,80,0.00,,SKC,0.00,VWS V14.01,2013-02-12 11:52:00,
2013-02-12 06:54:00,33.2,27.7,29.64,WNW,296,0.0,0.0,80,0.00,,SKC,0.00,VWS V14.01,2013-02-12 11:54:00,
2013-02-12 06:55:00,33.2,27.7,29.64,WNW,298,0.0,0.0,80,0.00,,SKC,0.00,VWS V14.01,2013-02-12 11:55:00,
2013-02-12 06:57:00,33.2,27.7,29.64,WNW,298,0.0,0.0,80,0.00,,SKC,0.00,VWS V14.01,2013-02-12 11:57:00,
2013-02-12 06:58:00,33.5,27.7,29.64,WNW,298,0.0,0.0,79,0.00,,SKC,0.00,VWS V14.01,2013-02-12 11:58:00,
2013-02-12 07:00:00,33.5,27.7,29.65,WNW,296,0.0,0.0,79,0.00,,SKC,0.00,VWS V14.01,2013-02-12 12:00:00,
2013-02-12 07:02:00,33.5,27.7,29.65,WNW,298,0.0,0.0,79,0.00,,SKC,0.00,VWS V14.01,2013-02-12 12:02:00,
2013-02-12 07:03:00,33.5,27.7,29.65,WNW,296,0.0,0.0,79,0.00,,SKC,0.00,VWS V14.01,2013-02-12 12:03:00,
2013-02-12 07:05:00,33.5,27.7,29.65,WNW,296,0.0,0.0,79,0.00,,SKC,0.00,VWS V14.01,2013-02-12 12:05:00,
2013-02-12 07:08:00,33.7,27.9,29.65,WNW,298,0.0,0.0,79,0.00,,SKC,0.00,VWS V14.01,2013-02-12 12:08:00,
2013-02-12 07:10:00,33.8,28.0,29.65,WNW,298,0.0,0.0,79,0.00,,SKC,0.00,VWS V14.01,2013-02-12 12:10:00,
2013-02-12 07:11:00,33.8,28.0,29.65,WNW,298,0.0,0.0,79,0.00,,SKC,0.00,VWS V14.01,2013-02-12 12:11:00,
2013-02-12 07:13:00,33.8,28.0,29.65,WNW,299,0.0,0.0,79,0.00,,SKC,0.00,VWS V14.01,2013-02-12 12:13:00,
2013-02-12 07:14:00,33.8,28.0,29.65,WNW,298,0.0,0.0,79,0.00,,SKC,0.00,VWS V14.01,2013-02-12 12:14:00,
2013-02-12 07:15:00,33.8,28.0,29.65,WNW,296,0.0,0.0,79,0.00,,SKC,0.00,VWS V14.01,2013-02-12 12:15:00,
2013-02-12 07:18:00,34.0,28.2,29.65,WNW,295,0.0,0.0,79,0.00,,SKC,0.00,VWS V14.01,2013-02-12 12:18:00,
2013-02-12 07:19:00,34.0,28.2,29.65,WNW,296,0.0,0.0,79,0.00,,SKC,0.00,VWS V14.01,2013-02-12 12:19:00,
2013-02-12 07:20:00,34.0,28.2,29.65,WNW,296,0.0,0.0,79,0.00,,SKC,0.00,VWS V14.01,2013-02-12 12:20:00,
2013-02-12 07:23:00,34.0,28.2,29.65,NNW,328,0.0,1.0,79,0.00,,SKC,0.00,VWS V14.01,2013-02-12 12:23:00,
2013-02-12 07:24:00,34.0,28.2,29.65,NW,326,0.0,0.0,79,0.00,,SKC,0.00,VWS V14.01,2013-02-12 12:24:00,
2013-02-12 07:25:00,34.0,28.2,29.65,NW,326,0.0,0.0,79,0.00,,SKC,0.00,VWS V14.01,2013-02-12 12:25:00,
2013-02-12 07:29:00,34.3,28.2,29.66,NW,326,0.0,0.0,78,0.00,,SKC,0.00,VWS V14.01,2013-02-12 12:29:00,
2013-02-12 07:30:00,34.4,28.3,29.66,NNW,328,0.0,0.0,78,0.00,,SKC,0.00,VWS V14.01,2013-02-12 12:30:00,
2013-02-12 07:34:00,34.7,28.2,29.66,NNW,328,0.0,0.0,77,0.00,,SKC,0.00,VWS V14.01,2013-02-12 12:34:00,
2013-02-12 07:35:00,34.7,28.2,29.66,NNW,328,0.0,0.0,77,0.00,,SKC,0.00,VWS V14.01,2013-02-12 12:35:00,
2013-02-12 07:36:00,35.2,28.7,29.66,NNW,328,0.0,0.0,77,0.00,,SKC,0.00,VWS V14.01,2013-02-12 12:36:00,
2013-02-12 07:39:00,35.5,28.4,29.66,NW,304,0.0,0.0,75,0.00,,SKC,0.00,VWS V14.01,2013-02-12 12:39:00,
2013-02-12 07:40:00,35.6,28.5,29.66,NW,305,1.0,1.0,75,0.00,,SKC,0.00,VWS V14.01,2013-02-12 12:40:00,
2013-02-12 07:41:00,35.8,28.7,29.66,NW,304,0.0,1.0,75,0.00,,SKC,0.00,VWS V14.01,2013-02-12 12:41:00,
2013-02-12 07:44:00,35.9,28.4,29.66,NW,304,0.0,1.0,74,0.00,,SKC,0.00,VWS V14.01,2013-02-12 12:44:00,
2013-02-12 07:45:00,35.9,28.4,29.66,NW,305,0.0,0.0,74,0.00,,SKC,0.00,VWS V14.01,2013-02-12 12:45:00,
2013-02-12 07:46:00,36.0,28.5,29.66,NW,305,0.0,0.0,74,0.00,,SKC,0.00,VWS V14.01,2013-02-12 12:46:00,
2013-02-12 07:49:00,36.2,28.4,29.66,NW,320,0.0,0.0,73,0.00,,SKC,0.00,VWS V14.01,2013-02-12 12:49:00,
2013-02-12 07:50:00,36.2,28.4,29.66,NW,319,0.0,0.0,73,0.00,,SKC,0.00,VWS V14.01,2013-02-12 12:50:00,
2013-02-12 07:51:00,36.3,28.5,29.66,NW,319,0.0,0.0,73,0.00,,SKC,0.00,VWS V14.01,2013-02-12 12:51:00,
2013-02-12 07:52:00,36.3,28.5,29.66,NW,319,0.0,0.0,73,0.00,,SKC,0.00,VWS V14.01,2013-02-12 12:52:00,
2013-02-12 07:54:00,36.5,28.4,29.66,WNW,298,2.0,5.0,72,0.00,,SKC,0.00,VWS V14.01,2013-02-12 12:54:00,
2013-02-12 07:55:00,36.5,28.4,29.66,WNW,295,1.0,3.0,72,0.00,,SKC,0.00,VWS V14.01,2013-02-12 12:55:00,
2013-02-12 07:56:00,36.6,28.1,29.66,North,354,0.0,3.0,71,0.00,,SKC,0.00,VWS V14.01,2013-02-12 12:56:00,
2013-02-12 07:57:00,36.6,28.1,29.66,North,354,0.0,3.0,71,0.00,,SKC,0.00,VWS V14.01,2013-02-12 12:57:00,
2013-02-12 07:59:00,36.8,28.3,29.66,North,356,0.0,0.0,71,0.00,,SKC,0.00,VWS V14.01,2013-02-12 12:59:00,
2013-02-12 08:00:00,36.8,28.3,29.66,West,270,2.0,2.0,71,0.00,,SKC,0.00,VWS V14.01,2013-02-12 13:00:00,
2013-02-12 08:01:00,36.8,28.3,29.66,NW,312,0.0,2.0,71,0.00,,SKC,0.00,VWS V14.01,2013-02-12 13:01:00,
2013-02-12 08:03:00,36.9,28.4,29.66,NW,311,0.0,2.0,71,0.00,,SKC,0.00,VWS V14.01,2013-02-12 13:03:00,
2013-02-12 08:05:00,37.0,28.5,29.66,NW,311,0.0,0.0,71,0.00,,SKC,0.00,VWS V14.01,2013-02-12 13:05:00,
2013-02-12 08:06:00,37.0,28.5,29.66,NW,311,0.0,0.0,71,0.00,,SKC,0.00,VWS V14.01,2013-02-12 13:06:00,
2013-02-12 08:08:00,37.0,28.5,29.66,NW,311,0.0,0.0,71,0.00,,SKC,0.00,VWS V14.01,2013-02-12 13:08:00,
2013-02-12 08:10:00,37.2,28.3,29.66,West,267,2.0,3.0,70,0.00,,SKC,0.00,VWS V14.01,2013-02-12 13:10:00,
2013-02-12 08:11:00,37.2,28.3,29.66,West,268,1.0,3.0,70,0.00,,SKC,0.00,VWS V14.01,2013-02-12 13:11:00,
2013-02-12 08:12:00,37.3,28.4,29.66,NW,318,1.0,3.0,70,0.00,,SKC,0.00,VWS V14.01,2013-02-12 13:12:00,
2013-02-12 08:13:00,37.5,28.3,29.66,NW,318,0.0,3.0,69,0.00,,SKC,0.00,VWS V14.01,2013-02-12 13:13:00,
2013-02-12 08:15:00,37.5,28.3,29.66,NW,316,0.0,3.0,69,0.00,,SKC,0.00,VWS V14.01,2013-02-12 13:15:00,
2013-02-12 08:16:00,37.6,28.4,29.66,NW,309,0.0,3.0,69,0.00,,SKC,0.00,VWS V14.01,2013-02-12 13:16:00,
2013-02-12 08:17:00,37.8,28.6,29.66,NW,312,0.0,3.0,69,0.00,,SKC,0.00,VWS V14.01,2013-02-12 13:17:00,
2013-02-12 08:18:00,38.0,28.4,29.66,NW,312,0.0,3.0,68,0.00,,SKC,0.00,VWS V14.01,2013-02-12 13:18:00,
2013-02-12 08:20:00,38.2,28.6,29.66,NW,315,0.0,3.0,68,0.00,,SKC,0.00,VWS V14.01,2013-02-12 13:20:00,
2013-02-12 08:21:00,38.3,28.3,29.66,WNW,301,0.0,0.0,67,0.00,,SKC,0.00,VWS V14.01,2013-02-12 13:21:00,
2013-02-12 08:22:00,38.6,28.6,29.66,WNW,302,0.0,1.0,67,0.00,,SKC,0.00,VWS V14.01,2013-02-12 13:22:00,
2013-02-12 08:23:00,38.6,28.6,29.66,WNW,287,0.0,2.0,67,0.00,,SKC,0.00,VWS V14.01,2013-02-12 13:23:00,
2013-02-12 08:24:00,38.6,28.6,29.66,WNW,285,0.0,2.0,67,0.00,,SKC,0.00,VWS V14.01,2013-02-12 13:24:00,
2013-02-12 08:25:00,38.8,28.8,29.66,WNW,285,0.0,2.0,67,0.00,,SKC,0.00,VWS V14.01,2013-02-12 13:25:00,
2013-02-12 08:26:00,38.9,28.9,29.66,West,274,0.0,3.0,67,0.00,,SKC,0.00,VWS V14.01,2013-02-12 13:26:00,
2013-02-12 08:27:00,39.1,29.1,29.66,NNW,336,0.0,3.0,67,0.00,,SKC,0.00,VWS V14.01,2013-02-12 13:27:00,
2013-02-12 08:28:00,39.1,29.1,29.66,NNW,336,0.0,3.0,67,0.00,,SKC,0.00,VWS V14.01,2013-02-12 13:28:00,
2013-02-12 08:29:00,39.1,29.1,29.66,NNW,336,0.0,3.0,67,0.00,,SKC,0.00,VWS V14.01,2013-02-12 13:29:00,
2013-02-12 08:30:00,39.1,29.1,29.66,NNW,336,0.0,3.0,67,0.00,,SKC,0.00,VWS V14.01,2013-02-12 13:30:00,
2013-02-12 08:31:00,39.1,29.1,29.66,NNW,336,0.0,0.0,67,0.00,,SKC,0.00,VWS V14.01,2013-02-12 13:31:00,
2013-02-12 08:32:00,39.1,29.1,29.66,NNW,336,0.0,0.0,67,0.00,,SKC,0.00,VWS V14.01,2013-02-12 13:32:00,
2013-02-12 08:34:00,39.1,29.1,29.66,NW,305,2.0,2.0,67,0.00,,SKC,0.00,VWS V14.01,2013-02-12 13:34:00,
2013-02-12 08:35:00,39.1,29.1,29.66,NW,305,2.0,2.0,67,0.00,,SKC,0.00,VWS V14.01,2013-02-12 13:35:00,
2013-02-12 08:36:00,39.2,29.2,29.66,WNW,289,2.0,2.0,67,0.00,,SKC,0.00,VWS V14.01,2013-02-12 13:36:00,
2013-02-12 08:37:00,39.2,29.2,29.66,NW,320,5.0,5.0,67,0.00,,SKC,0.00,VWS V14.01,2013-02-12 13:37:00,
2013-02-12 08:39:00,39.2,29.2,29.66,WSW,251,0.0,5.0,67,0.00,,SKC,0.00,VWS V14.01,2013-02-12 13:39:00,
2013-02-12 08:40:00,39.2,29.2,29.66,WSW,251,0.0,5.0,67,0.00,,SKC,0.00,VWS V14.01,2013-02-12 13:40:00,
2013-02-12 08:41:00,39.2,29.2,29.66,WNW,299,3.0,5.0,67,0.00,,SKC,0.00,VWS V14.01,2013-02-12 13:41:00,
2013-02-12 08:42:00,39.2,29.2,29.66,WNW,299,3.0,5.0,67,0.00,,SKC,0.00,VWS V14.01,2013-02-12 13:42:00,
2013-02-12 08:44:00,39.2,29.2,29.66,WNW,299,3.0,5.0,67,0.00,,SKC,0.00,VWS V14.01,2013-02-12 13:44:00,
2013-02-12 08:45:00,39.2,29.2,29.66,WNW,299,3.0,5.0,67,0.00,,SKC,0.00,VWS V14.01,2013-02-12 13:45:00,
2013-02-12 08:47:00,39.2,29.2,29.66,WNW,287,2.0,3.0,67,0.00,,SKC,0.00,VWS V14.01,2013-02-12 13:47:00,
2013-02-12 08:48:00,39.5,29.5,29.66,NW,315,2.0,3.0,67,0.00,,SKC,0.00,VWS V14.01,2013-02-12 13:48:00,
2013-02-12 08:49:00,39.6,28.8,29.66,NW,305,0.0,3.0,65,0.00,,SKC,0.00,VWS V14.01,2013-02-12 13:49:00,
2013-02-12 08:50:00,39.6,28.8,29.66,NW,305,0.0,3.0,65,0.00,,SKC,0.00,VWS V14.01,2013-02-12 13:50:00,
2013-02-12 08:52:00,39.8,29.0,29.66,NW,320,2.0,3.0,65,0.00,,SKC,0.00,VWS V14.01,2013-02-12 13:52:00,
2013-02-12 08:53:00,39.8,29.0,29.66,WSW,257,0.0,3.0,65,0.00,,SKC,0.00,VWS V14.01,2013-02-12 13:53:00,
2013-02-12 08:54:00,39.9,29.1,29.66,WNW,294,0.0,3.0,65,0.00,,SKC,0.00,VWS V14.01,2013-02-12 13:54:00,
2013-02-12 08:55:00,39.9,29.1,29.66,WNW,301,1.0,1.0,65,0.00,,SKC,0.00,VWS V14.01,2013-02-12 13:55:00,
2013-02-12 08:58:00,40.1,29.3,29.66,West,275,0.0,1.0,65,0.00,,SKC,0.00,VWS V14.01,2013-02-12 13:58:00,
2013-02-12 08:59:00,40.1,28.9,29.67,West,277,0.0,1.0,64,0.00,,SKC,0.00,VWS V14.01,2013-02-12 13:59:00,
2013-02-12 09:00:00,40.1,28.9,29.67,West,277,0.0,0.0,64,0.00,,SKC,0.00,VWS V14.01,2013-02-12 14:00:00,
2013-02-12 09:03:00,40.1,28.9,29.67,NW,308,4.0,4.0,64,0.00,,SKC,0.00,VWS V14.01,2013-02-12 14:03:00,
2013-02-12 09:04:00,40.1,28.5,29.67,WNW,301,2.0,7.0,63,0.00,,SKC,0.00,VWS V14.01,2013-02-12 14:04:00,
2013-02-12 09:05:00,40.1,28.5,29.67,WNW,301,0.0,2.0,63,0.00,,SKC,0.00,VWS V14.01,2013-02-12 14:05:00,
2013-02-12 09:08:00,40.2,28.6,29.67,WNW,299,3.0,8.0,63,0.00,,SKC,0.00,VWS V14.01,2013-02-12 14:08:00,
2013-02-12 09:09:00,40.1,28.1,29.67,NNW,328,1.0,8.0,62,0.00,,SKC,0.00,VWS V14.01,2013-02-12 14:09:00,
2013-02-12 09:10:00,40.1,28.1,29.67,NNW,330,2.0,2.0,62,0.00,,SKC,0.00,VWS V14.01,2013-02-12 14:10:00,
2013-02-12 09:13:00,40.1,28.1,29.67,NNW,339,0.0,5.0,62,0.00,,SKC,0.00,VWS V14.01,2013-02-12 14:13:00,
2013-02-12 09:14:00,40.2,28.2,29.67,NNW,339,0.0,0.0,62,0.00,,SKC,0.00,VWS V14.01,2013-02-12 14:14:00,
2013-02-12 09:15:00,40.2,28.2,29.67,WNW,288,0.0,3.0,62,0.00,,SKC,0.00,VWS V14.01,2013-02-12 14:15:00,
2013-02-12 09:18:00,40.2,28.2,29.67,NW,313,1.0,6.0,62,0.00,,SKC,0.00,VWS V14.01,2013-02-12 14:18:00,
2013-02-12 09:20:00,40.2,28.2,29.67,WNW,298,2.0,6.0,62,0.00,,SKC,0.00,VWS V14.01,2013-02-12 14:20:00,
2013-02-12 09:21:00,40.2,27.8,29.67,NW,304,4.0,6.0,61,0.00,,SKC,0.00,VWS V14.01,2013-02-12 14:21:00,
2013-02-12 09:23:00,40.3,27.5,29.67,West,281,1.0,6.0,60,0.00,,SKC,0.00,VWS V14.01,2013-02-12 14:23:00,
2013-02-12 09:25:00,40.3,27.9,29.67,NNW,333,2.0,3.0,61,0.00,,SKC,0.00,VWS V14.01,2013-02-12 14:25:00,
2013-02-12 09:26:00,40.3,27.9,29.67,NW,316,5.0,5.0,61,0.00,,SKC,0.00,VWS V14.01,2013-02-12 14:26:00,
2013-02-12 09:29:00,40.3,27.5,29.67,WNW,291,3.0,8.0,60,0.00,,SKC,0.00,VWS V14.01,2013-02-12 14:29:00,
2013-02-12 09:30:00,40.3,27.5,29.67,WNW,301,2.0,3.0,60,0.00,,SKC,0.00,VWS V14.01,2013-02-12 14:30:00,
2013-02-12 09:31:00,40.3,27.5,29.67,WNW,301,0.0,3.0,60,0.00,,SKC,0.00,VWS V14.01,2013-02-12 14:31:00,
2013-02-12 09:35:00,40.3,27.5,29.67,NW,320,1.0,6.0,60,0.00,,SKC,0.00,VWS V14.01,2013-02-12 14:35:00,
2013-02-12 09:36:00,40.3,27.5,29.67,WNW,287,3.0,6.0,60,0.00,,SKC,0.00,VWS V14.01,2013-02-12 14:36:00,
2013-02-12 09:40:00,40.2,27.0,29.67,WNW,285,2.0,5.0,59,0.00,,SKC,0.00,VWS V14.01,2013-02-12 14:40:00,
2013-02-12 09:41:00,40.2,27.0,29.67,WNW,292,1.0,5.0,59,0.00,,SKC,0.00,VWS V14.01,2013-02-12 14:41:00,
2013-02-12 09:45:00,40.3,27.1,29.67,NW,306,5.0,8.0,59,0.00,,SKC,0.00,VWS V14.01,2013-02-12 14:45:00,
2013-02-12 09:46:00,40.3,27.1,29.67,NW,311,5.0,8.0,59,0.00,,SKC,0.00,VWS V14.01,2013-02-12 14:46:00,
2013-02-12 09:47:00,40.3,26.7,29.67,WNW,299,1.0,8.0,58,0.00,,SKC,0.00,VWS V14.01,2013-02-12 14:47:00,
2013-02-12 09:50:00,40.3,26.7,29.67,NW,323,1.0,8.0,58,0.00,,SKC,0.00,VWS V14.01,2013-02-12 14:50:00,
2013-02-12 09:51:00,40.5,26.9,29.67,WNW,284,1.0,2.0,58,0.00,,SKC,0.00,VWS V14.01,2013-02-12 14:51:00,
2013-02-12 09:52:00,40.5,27.3,29.67,WNW,284,0.0,2.0,59,0.00,,SKC,0.00,VWS V14.01,2013-02-12 14:52:00,
2013-02-12 09:55:00,40.5,27.3,29.67,WNW,284,0.0,2.0,59,0.00,,SKC,0.00,VWS V14.01,2013-02-12 14:55:00,
2013-02-12 09:56:00,40.5,27.3,29.67,North,353,3.0,3.0,59,0.00,,SKC,0.00,VWS V14.01,2013-02-12 14:56:00,
2013-02-12 09:58:00,40.5,27.3,29.67,NW,318,2.0,5.0,59,0.00,,SKC,0.00,VWS V14.01,2013-02-12 14:58:00,
2013-02-12 10:00:00,40.5,27.3,29.68,NNW,344,0.0,5.0,59,0.00,,SKC,0.00,VWS V14.01,2013-02-12 15:00:00,
2013-02-12 10:01:00,40.5,27.3,29.68,NW,315,6.0,6.0,59,0.00,,SKC,0.00,VWS V14.01,2013-02-12 15:01:00,
2013-02-12 10:02:00,40.5,26.0,29.68,WNW,289,2.0,10.0,56,0.00,,SKC,0.00,VWS V14.01,2013-02-12 15:02:00,
2013-02-12 10:03:00,40.5,26.0,29.68,NW,326,1.0,10.0,56,0.00,,SKC,0.00,VWS V14.01,2013-02-12 15:03:00,
2013-02-12 10:05:00,40.5,26.0,29.68,NNW,339,0.0,16.0,56,0.00,,SKC,0.00,VWS V14.01,2013-02-12 15:05:00,
2013-02-12 10:06:00,40.5,26.9,29.68,West,278,1.0,5.0,58,0.00,,SKC,0.00,VWS V14.01,2013-02-12 15:06:00,
2013-02-12 10:07:00,40.5,26.9,29.68,West,274,9.0,9.0,58,0.00,,SKC,0.00,VWS V14.01,2013-02-12 15:07:00,
2013-02-12 10:08:00,40.5,25.6,29.68,WNW,298,6.0,9.0,55,0.00,,SKC,0.00,VWS V14.01,2013-02-12 15:08:00,
2013-02-12 10:10:00,40.5,26.0,29.68,NW,306,6.0,9.0,56,0.00,,SKC,0.00,VWS V14.01,2013-02-12 15:10:00,
2013-02-12 10:11:00,40.6,25.3,29.68,WSW,243,1.0,10.0,54,0.00,,SKC,0.00,VWS V14.01,2013-02-12 15:11:00,
2013-02-12 10:12:00,40.8,25.5,29.68,NNW,328,2.0,10.0,54,0.00,,SKC,0.00,VWS V14.01,2013-02-12 15:12:00,
2013-02-12 10:14:00,40.8,25.9,29.68,SE,145,7.0,10.0,55,0.00,,SKC,0.00,VWS V14.01,2013-02-12 15:14:00,
2013-02-12 10:15:00,40.8,25.9,29.68,WNW,294,2.0,10.0,55,0.00,,SKC,0.00,VWS V14.01,2013-02-12 15:15:00,
2013-02-12 10:17:00,40.9,25.5,29.68,North,353,3.0,11.0,54,0.00,,SKC,0.00,VWS V14.01,2013-02-12 15:17:00,
2013-02-12 10:18:00,40.9,25.5,29.68,SSE,150,1.0,11.0,54,0.00,,SKC,0.00,VWS V14.01,2013-02-12 15:18:00,
2013-02-12 10:19:00,40.9,25.5,29.68,SSE,152,0.0,11.0,54,0.00,,SKC,0.00,VWS V14.01,2013-02-12 15:19:00,
2013-02-12 10:20:00,41.1,26.2,29.68,SSE,152,0.0,11.0,55,0.00,,SKC,0.00,VWS V14.01,2013-02-12 15:20:00,
2013-02-12 10:22:00,41.2,26.3,29.68,SSW,213,0.0,0.0,55,0.00,,SKC,0.00,VWS V14.01,2013-02-12 15:22:00,
2013-02-12 10:23:00,41.3,26.4,29.68,SW,219,0.0,0.0,55,0.00,,SKC,0.00,VWS V14.01,2013-02-12 15:23:00,
2013-02-12 10:24:00,41.5,26.5,29.68,WSW,246,0.0,0.0,55,0.00,,SKC,0.00,VWS V14.01,2013-02-12 15:24:00,
2013-02-12 10:25:00,41.5,26.5,29.68,WSW,244,0.0,0.0,55,0.00,,SKC,0.00,VWS V14.01,2013-02-12 15:25:00,
2013-02-12 10:27:00,41.9,26.0,29.68,North,350,3.0,6.0,53,0.00,,SKC,0.00,VWS V14.01,2013-02-12 15:27:00,
2013-02-12 10:28:00,42.1,26.2,29.68,West,267,2.0,6.0,53,0.00,,SKC,0.00,VWS V14.01,2013-02-12 15:28:00,
2013-02-12 10:29:00,42.1,25.8,29.68,NW,313,1.0,7.0,52,0.00,,SKC,0.00,VWS V14.01,2013-02-12 15:29:00,
2013-02-12 10:30:00,42.1,25.8,29.68,NW,313,1.0,7.0,52,0.00,,SKC,0.00,VWS V14.01,2013-02-12 15:30:00,
2013-02-12 10:32:00,42.1,25.8,29.68,NW,326,4.0,8.0,52,0.00,,SKC,0.00,VWS V14.01,2013-02-12 15:32:00,
2013-02-12 10:33:00,42.1,25.8,29.68,WNW,301,7.0,8.0,52,0.00,,SKC,0.00,VWS V14.01,2013-02-12 15:33:00,
2013-02-12 10:34:00,42.1,25.8,29.68,NW,309,3.0,8.0,52,0.00,,SKC,0.00,VWS V14.01,2013-02-12 15:34:00,
2013-02-12 10:35:00,42.1,25.8,29.68,NW,323,6.0,8.0,52,0.00,,SKC,0.00,VWS V14.01,2013-02-12 15:35:00,
2013-02-12 10:37:00,41.9,25.6,29.68,NNW,346,2.0,8.0,52,0.00,,SKC,0.00,VWS V14.01,2013-02-12 15:37:00,
2013-02-12 10:38:00,41.9,26.0,29.68,WNW,301,2.0,8.0,53,0.00,,SKC,0.00,VWS V14.01,2013-02-12 15:38:00,
2013-02-12 10:39:00,41.9,26.0,29.68,NW,325,2.0,8.0,53,0.00,,SKC,0.00,VWS V14.01,2013-02-12 15:39:00,
2013-02-12 10:40:00,41.9,26.5,29.68,NW,318,2.0,3.0,54,0.00,,SKC,0.00,VWS V14.01,2013-02-12 15:40:00,
2013-02-12 10:42:00,41.9,26.0,29.68,NNW,337,2.0,5.0,53,0.00,,SKC,0.00,VWS V14.01,2013-02-12 15:42:00,
2013-02-12 10:44:00,41.9,26.0,29.68,NW,323,1.0,5.0,53,0.00,,SKC,0.00,VWS V14.01,2013-02-12 15:44:00,
2013-02-12 10:45:00,41.9,26.0,29.68,WNW,301,1.0,5.0,53,0.00,,SKC,0.00,VWS V14.01,2013-02-12 15:45:00,
2013-02-12 10:47:00,41.8,25.9,29.68,NW,306,5.0,7.0,53,0.00,,SKC,0.00,VWS V14.01,2013-02-12 15:47:00,
2013-02-12 10:49:00,41.8,25.9,29.68,NW,316,4.0,7.0,53,0.00,,SKC,0.00,VWS V14.01,2013-02-12 15:49:00,
2013-02-12 10:50:00,41.8,25.9,29.68,WNW,302,2.0,5.0,53,0.00,,SKC,0.00,VWS V14.01,2013-02-12 15:50:00,
2013-02-12 10:53:00,41.8,25.9,29.68,NNW,346,0.0,5.0,53,0.00,,SKC,0.00,VWS V14.01,2013-02-12 15:53:00,
2013-02-12 10:54:00,41.8,25.9,29.68,NNW,335,2.0,5.0,53,0.00,,SKC,0.00,VWS V14.01,2013-02-12 15:54:00,
2013-02-12 10:55:00,41.8,25.9,29.68,NW,320,6.0,7.0,53,0.00,,SKC,0.00,VWS V14.01,2013-02-12 15:55:00,
2013-02-12 10:58:00,42.1,26.7,29.68,WNW,298,0.0,7.0,54,0.00,,SKC,0.00,VWS V14.01,2013-02-12 15:58:00,
2013-02-12 10:59:00,42.2,26.3,29.68,West,265,2.0,7.0,53,0.00,,SKC,0.00,VWS V14.01,2013-02-12 15:59:00,
2013-02-12 11:00:00,42.2,26.3,29.68,WNW,295,1.0,3.0,53,0.00,,SKC,0.00,VWS V14.01,2013-02-12 16:00:00,
2013-02-12 11:01:00,42.3,26.4,29.68,NW,323,3.0,3.0,53,0.00,,SKC,0.00,VWS V14.01,2013-02-12 16:01:00,
2013-02-12 11:04:00,42.5,26.6,29.68,WNW,289,0.0,3.0,53,0.00,,SKC,0.00,VWS V14.01,2013-02-12 16:04:00,
2013-02-12 11:05:00,42.5,26.6,29.68,WNW,292,1.0,3.0,53,0.00,,SKC,0.00,VWS V14.01,2013-02-12 16:05:00,
2013-02-12 11:06:00,42.5,26.6,29.68,NNW,333,3.0,3.0,53,0.00,,SKC,0.00,VWS V14.01,2013-02-12 16:06:00,
2013-02-12 11:07:00,42.5,26.6,29.68,NNW,328,3.0,3.0,53,0.00,,SKC,0.00,VWS V14.01,2013-02-12 16:07:00,
2013-02-12 11:09:00,42.5,26.1,29.68,NNW,330,4.0,5.0,52,0.00,,SKC,0.00,VWS V14.01,2013-02-12 16:09:00,
2013-02-12 11:10:00,42.3,25.9,29.68,NW,313,5.0,7.0,52,0.00,,SKC,0.00,VWS V14.01,2013-02-12 16:10:00,
2013-02-12 11:11:00,42.3,25.9,29.68,WNW,291,0.0,5.0,52,0.00,,SKC,0.00,VWS V14.01,2013-02-12 16:11:00,
2013-02-12 11:12:00,42.5,26.6,29.68,NW,311,0.0,5.0,53,0.00,,SKC,0.00,VWS V14.01,2013-02-12 16:12:00,
2013-02-12 11:14:00,42.5,26.6,29.68,NW,325,1.0,5.0,53,0.00,,SKC,0.00,VWS V14.01,2013-02-12 16:14:00,
2013-02-12 11:15:00,42.5,26.6,29.68,NW,323,1.0,1.0,53,0.00,,SKC,0.00,VWS V14.01,2013-02-12 16:15:00,
2013-02-12 11:16:00,42.5,26.6,29.68,NNW,342,3.0,4.0,53,0.00,,SKC,0.00,VWS V14.01,2013-02-12 16:16:00,
2013-02-12 11:17:00,42.5,26.6,29.68,NW,312,2.0,6.0,53,0.00,,SKC,0.00,VWS V14.01,2013-02-12 16:17:00,
2013-02-12 11:19:00,42.3,25.9,29.68,WNW,302,3.0,11.0,52,0.00,,SKC,0.00,VWS V14.01,2013-02-12 16:19:00,
2013-02-12 11:20:00,42.3,25.9,29.68,NW,311,1.0,9.0,52,0.00,,SKC,0.00,VWS V14.01,2013-02-12 16:20:00,
2013-02-12 11:22:00,42.2,25.4,29.68,NW,306,7.0,13.0,51,0.00,,SKC,0.00,VWS V14.01,2013-02-12 16:22:00,
2013-02-12 11:24:00,42.1,25.3,29.68,NW,313,6.0,13.0,51,0.00,,SKC,0.00,VWS V14.01,2013-02-12 16:24:00,
2013-02-12 11:25:00,42.1,25.3,29.68,WNW,299,5.0,6.0,51,0.00,,SKC,0.00,VWS V14.01,2013-02-12 16:25:00,
2013-02-12 11:27:00,42.1,25.3,29.68,WNW,299,5.0,6.0,51,0.00,,SKC,0.00,VWS V14.01,2013-02-12 16:27:00,
2013-02-12 11:28:00,42.1,25.3,29.68,WNW,299,5.0,6.0,51,0.00,,SKC,0.00,VWS V14.01,2013-02-12 16:28:00,
2013-02-12 11:29:00,42.2,25.4,29.68,NW,312,0.0,0.0,51,0.00,,SKC,0.00,VWS V14.01,2013-02-12 16:29:00,
2013-02-12 11:30:00,42.3,26.4,29.68,NW,316,3.0,3.0,53,0.00,,SKC,0.00,VWS V14.01,2013-02-12 16:30:00,
2013-02-12 11:32:00,42.2,24.9,29.68,WNW,296,6.0,7.0,50,0.00,,SKC,0.00,VWS V14.01,2013-02-12 16:32:00,
2013-02-12 11:33:00,42.2,24.9,29.68,NW,311,3.0,7.0,50,0.00,,SKC,0.00,VWS V14.01,2013-02-12 16:33:00,
2013-02-12 11:34:00,42.1,25.3,29.68,NW,325,5.0,7.0,51,0.00,,SKC,0.00,VWS V14.01,2013-02-12 16:34:00,
2013-02-12 11:35:00,42.1,24.8,29.68,WNW,295,6.0,7.0,50,0.00,,SKC,0.00,VWS V14.01,2013-02-12 16:35:00,
2013-02-12 11:37:00,42.1,24.8,29.68,NW,318,6.0,9.0,50,0.00,,SKC,0.00,VWS V14.01,2013-02-12 16:37:00,
2013-02-12 11:38:00,42.2,24.9,29.68,NNW,330,1.0,9.0,50,0.00,,SKC,0.00,VWS V14.01,2013-02-12 16:38:00,
2013-02-12 11:40:00,42.3,25.0,29.68,WNW,285,5.0,5.0,50,0.00,,SKC,0.00,VWS V14.01,2013-02-12 16:40:00,
2013-02-12 11:41:00,42.3,25.0,29.68,NW,323,7.0,8.0,50,0.00,,SKC,0.00,VWS V14.01,2013-02-12 16:41:00,
2013-02-12 11:43:00,42.3,25.0,29.68,NNW,333,0.0,8.0,50,0.00,,SKC,0.00,VWS V14.01,2013-02-12 16:43:00,
2013-02-12 11:45:00,42.3,24.5,29.67,West,278,3.0,13.0,49,0.00,,SKC,0.00,VWS V14.01,2013-02-12 16:45:00,
2013-02-12 11:46:00,42.3,24.5,29.67,NW,309,2.0,13.0,49,0.00,,SKC,0.00,VWS V14.01,2013-02-12 16:46:00,
2013-02-12 11:48:00,42.3,24.5,29.67,NW,309,2.0,13.0,49,0.00,,SKC,0.00,VWS V14.01,2013-02-12 16:48:00,
2013-02-12 11:49:00,42.3,24.5,29.67,NW,309,2.0,13.0,49,0.00,,SKC,0.00,VWS V14.01,2013-02-12 16:49:00,
2013-02-12 11:50:00,42.3,24.5,29.67,NW,309,2.0,2.0,49,0.00,,SKC,0.00,VWS V14.01,2013-02-12 16:50:00,
2013-02-12 11:51:00,42.3,24.5,29.67,NW,309,2.0,2.0,49,0.00,,SKC,0.00,VWS V14.01,2013-02-12 16:51:00,
2013-02-12 11:53:00,42.3,24.5,29.67,SE,140,0.0,3.0,49,0.00,,SKC,0.00,VWS V14.01,2013-02-12 16:53:00,
2013-02-12 11:54:00,42.3,24.5,29.67,SE,140,0.0,3.0,49,0.00,,SKC,0.00,VWS V14.01,2013-02-12 16:54:00,
2013-02-12 11:55:00,42.3,24.5,29.67,SE,140,0.0,3.0,49,0.00,,SKC,0.00,VWS V14.01,2013-02-12 16:55:00,
2013-02-12 11:56:00,42.3,24.5,29.67,SE,140,0.0,0.0,49,0.00,,SKC,0.00,VWS V14.01,2013-02-12 16:56:00,
2013-02-12 11:57:00,42.3,24.5,29.67,NNW,335,7.0,7.0,49,0.00,,SKC,0.00,VWS V14.01,2013-02-12 16:57:00,
2013-02-12 11:59:00,42.3,24.5,29.68,NW,318,2.0,7.0,49,0.00,,SKC,0.00,VWS V14.01,2013-02-12 16:59:00,
2013-02-12 12:00:00,42.3,24.5,29.68,NW,320,1.0,7.0,49,0.00,,SKC,0.00,VWS V14.01,2013-02-12 17:00:00,
2013-02-12 12:02:00,42.9,25.1,29.68,NW,315,2.0,2.0,49,0.00,,SKC,0.00,VWS V14.01,2013-02-12 17:02:00,
2013-02-12 12:03:00,42.9,25.1,29.68,WNW,291,2.0,7.0,49,0.00,,SKC,0.00,VWS V14.01,2013-02-12 17:03:00,
2013-02-12 12:04:00,42.9,25.1,29.68,NNW,342,2.0,7.0,49,0.00,,SKC,0.00,VWS V14.01,2013-02-12 17:04:00,
2013-02-12 12:05:00,42.9,25.1,29.68,NNW,342,2.0,7.0,49,0.00,,SKC,0.00,VWS V14.01,2013-02-12 17:05:00,
2013-02-12 12:07:00,42.5,24.7,29.68,NNW,339,3.0,3.0,49,0.00,,SKC,0.00,VWS V14.01,2013-02-12 17:07:00,
2013-02-12 12:08:00,42.5,25.7,29.68,NW,309,1.0,4.0,51,0.00,,SKC,0.00,VWS V14.01,2013-02-12 17:08:00,
2013-02-12 12:09:00,42.5,25.7,29.68,West,281,1.0,4.0,51,0.00,,SKC,0.00,VWS V14.01,2013-02-12 17:09:00,
2013-02-12 12:10:00,42.5,25.7,29.68,West,281,1.0,4.0,51,0.00,,SKC,0.00,VWS V14.01,2013-02-12 17:10:00,
2013-02-12 12:13:00,42.3,25.5,29.68,WNW,285,1.0,3.0,51,0.00,,SKC,0.00,VWS V14.01,2013-02-12 17:13:00,
2013-02-12 12:14:00,42.3,25.5,29.68,WNW,285,1.0,3.0,51,0.00,,SKC,0.00,VWS V14.01,2013-02-12 17:14:00,
2013-02-12 12:15:00,42.9,25.6,29.70,NNW,329,1.0,8.0,50,0.00,,SKC,0.00,VWS V14.01,2013-02-12 17:15:00,
2013-02-12 12:18:00,42.5,25.7,29.68,WNW,284,5.0,5.0,51,0.00,,SKC,0.00,VWS V14.01,2013-02-12 17:18:00,
2013-02-12 12:19:00,42.5,25.7,29.68,WNW,284,5.0,5.0,51,0.00,,SKC,0.00,VWS V14.01,2013-02-12 17:19:00,
2013-02-12 12:20:00,42.5,25.7,29.68,WNW,284,6.0,6.0,51,0.00,,SKC,0.00,VWS V14.01,2013-02-12 17:20:00,
2013-02-12 12:23:00,42.5,25.7,29.68,NW,309,5.0,6.0,51,0.00,,SKC,0.00,VWS V14.01,2013-02-12 17:23:00,
2013-02-12 12:24:00,42.3,25.5,29.68,WNW,284,2.0,6.0,51,0.00,,SKC,0.00,VWS V14.01,2013-02-12 17:24:00,
2013-02-12 12:25:00,42.3,25.5,29.68,WNW,295,1.0,2.0,51,0.00,,SKC,0.00,VWS V14.01,2013-02-12 17:25:00,
2013-02-12 12:28:00,42.1,25.8,29.70,North,350,0.0,7.0,52,0.00,,SKC,0.00,VWS V14.01,2013-02-12 17:28:00,
2013-02-12 12:30:00,42.1,25.8,29.70,North,350,0.0,1.0,52,0.00,,SKC,0.00,VWS V14.01,2013-02-12 17:30:00,
2013-02-12 12:34:00,42.1,25.3,29.70,NNW,329,2.0,6.0,51,0.00,,SKC,0.00,VWS V14.01,2013-02-12 17:34:00,
2013-02-12 12:35:00,42.1,25.3,29.70,NNW,329,6.0,6.0,51,0.00,,SKC,0.00,VWS V14.01,2013-02-12 17:35:00,
2013-02-12 12:36:00,42.1,25.3,29.70,NW,315,1.0,6.0,51,0.00,,SKC,0.00,VWS V14.01,2013-02-12 17:36:00,
2013-02-12 12:39:00,42.1,25.3,29.70,NW,315,1.0,6.0,51,0.00,,SKC,0.00,VWS V14.01,2013-02-12 17:39:00,
2013-02-12 12:40:00,42.1,25.3,29.70,WNW,299,1.0,1.0,51,0.00,,SKC,0.00,VWS V14.01,2013-02-12 17:40:00,
2013-02-12 12:41:00,42.1,25.3,29.70,West,278,2.0,2.0,51,0.00,,SKC,0.00,VWS V14.01,2013-02-12 17:41:00,
2013-02-12 12:44:00,42.1,25.3,29.69,WNW,296,2.0,2.0,51,0.00,,SKC,0.00,VWS V14.01,2013-02-12 17:44:00,
2013-02-12 12:45:00,42.1,25.3,29.69,West,278,7.0,7.0,51,0.00,,SKC,0.00,VWS V14.01,2013-02-12 17:45:00,
2013-02-12 12:46:00,42.1,25.3,29.69,WNW,302,3.0,7.0,51,0.00,,SKC,0.00,VWS V14.01,2013-02-12 17:46:00,
2013-02-12 12:49:00,41.9,25.1,29.69,WNW,292,0.0,0.0,51,0.00,,SKC,0.00,VWS V14.01,2013-02-12 17:49:00,
2013-02-12 12:50:00,41.9,25.1,29.69,WNW,292,0.0,7.0,51,0.00,,SKC,0.00,VWS V14.01,2013-02-12 17:50:00,
2013-02-12 12:51:00,41.9,25.1,29.69,WNW,294,3.0,3.0,51,0.00,,SKC,0.00,VWS V14.01,2013-02-12 17:51:00,
2013-02-12 12:55:00,41.9,25.1,29.69,NNW,344,0.0,0.0,51,0.00,,SKC,0.00,VWS V14.01,2013-02-12 17:55:00,
2013-02-12 12:56:00,41.9,25.1,29.69,NNW,344,0.0,0.0,51,0.00,,SKC,0.00,VWS V14.01,2013-02-12 17:56:00,
2013-02-12 12:57:00,42.2,25.4,29.69,NNW,342,2.0,2.0,51,0.00,,SKC,0.00,VWS V14.01,2013-02-12 17:57:00,
2013-02-12 13:00:00,42.3,25.5,29.69,WNW,291,1.0,2.0,51,0.00,,SKC,0.00,VWS V14.01,2013-02-12 18:00:00,
2013-02-12 13:01:00,42.6,25.8,29.69,WNW,296,3.0,3.0,51,0.00,,SKC,0.00,VWS V14.01,2013-02-12 18:01:00,
2013-02-12 13:03:00,42.6,25.8,29.69,North,354,1.0,3.0,51,0.00,,SKC,0.00,VWS V14.01,2013-02-12 18:03:00,
2013-02-12 13:05:00,42.9,25.6,29.69,NW,319,2.0,2.0,50,0.00,,SKC,0.00,VWS V14.01,2013-02-12 18:05:00,
2013-02-12 13:07:00,42.9,25.6,29.69,NNW,328,5.0,5.0,50,0.00,,SKC,0.00,VWS V14.01,2013-02-12 18:07:00,
2013-02-12 13:08:00,42.9,25.6,29.69,NNW,328,5.0,5.0,50,0.00,,SKC,0.00,VWS V14.01,2013-02-12 18:08:00,
2013-02-12 13:10:00,42.9,25.6,29.69,SE,138,8.0,8.0,50,0.00,,SKC,0.00,VWS V14.01,2013-02-12 18:10:00,
2013-02-12 13:11:00,42.9,25.6,29.69,NNW,329,1.0,8.0,50,0.00,,SKC,0.00,VWS V14.01,2013-02-12 18:11:00,
2013-02-12 13:12:00,42.9,25.6,29.69,NNW,329,1.0,8.0,50,0.00,,SKC,0.00,VWS V14.01,2013-02-12 18:12:00,
2013-02-12 13:13:00,42.9,25.6,29.69,NNW,329,1.0,8.0,50,0.00,,SKC,0.00,VWS V14.01,2013-02-12 18:13:00,
2013-02-12 13:15:00,42.9,25.6,29.70,NNW,329,1.0,8.0,50,0.00,,SKC,0.00,VWS V14.01,2013-02-12 18:15:00,
2013-02-12 13:16:00,42.9,25.6,29.70,NNW,329,1.0,1.0,50,0.00,,SKC,0.00,VWS V14.01,2013-02-12 18:16:00,
2013-02-12 13:17:00,42.9,25.6,29.70,NNW,329,1.0,1.0,50,0.00,,SKC,0.00,VWS V14.01,2013-02-12 18:17:00,
2013-02-12 13:18:00,42.9,25.6,29.70,NNW,329,1.0,1.0,50,0.00,,SKC,0.00,VWS V14.01,2013-02-12 18:18:00,
2013-02-12 13:20:00,42.9,25.6,29.70,NNW,329,1.0,1.0,50,0.00,,SKC,0.00,VWS V14.01,2013-02-12 18:20:00,
2013-02-12 13:22:00,43.2,25.4,29.70,North,353,7.0,8.0,49,0.00,,SKC,0.00,VWS V14.01,2013-02-12 18:22:00,
2013-02-12 13:23:00,43.3,25.4,29.70,SE,134,2.0,8.0,49,0.00,,SKC,0.00,VWS V14.01,2013-02-12 18:23:00,
2013-02-12 13:25:00,43.3,25.4,29.70,WNW,302,1.0,8.0,49,0.00,,SKC,0.00,VWS V14.01,2013-02-12 18:25:00,
2013-02-12 13:27:00,43.3,25.4,29.70,SSE,151,2.0,5.0,49,0.00,,SKC,0.00,VWS V14.01,2013-02-12 18:27:00,
2013-02-12 13:28:00,43.3,25.4,29.70,NNW,328,2.0,5.0,49,0.00,,SKC,0.00,VWS V14.01,2013-02-12 18:28:00,
2013-02-12 13:29:00,43.3,25.4,29.70,NW,323,0.0,5.0,49,0.00,,SKC,0.00,VWS V14.01,2013-02-12 18:29:00,
2013-02-12 13:30:00,43.3,25.4,29.70,NW,323,0.0,5.0,49,0.00,,SKC,0.00,VWS V14.01,2013-02-12 18:30:00,
2013-02-12 13:32:00,43.2,25.8,29.70,NNW,329,3.0,3.0,50,0.00,,SKC,0.00,VWS V14.01,2013-02-12 18:32:00,
2013-02-12 13:33:00,43.2,25.8,29.70,SE,134,6.0,6.0,50,0.00,,SKC,0.00,VWS V14.01,2013-02-12 18:33:00,
2013-02-12 13:34:00,43.2,25.8,29.70,North,354,0.0,6.0,50,0.00,,SKC,0.00,VWS V14.01,2013-02-12 18:34:00,
2013-02-12 13:35:00,43.2,25.8,29.70,North,354,0.0,6.0,50,0.00,,SKC,0.00,VWS V14.01,2013-02-12 18:35:00,
2013-02-12 13:37:00,43.2,25.8,29.70,North,354,0.0,0.0,50,0.00,,SKC,0.00,VWS V14.01,2013-02-12 18:37:00,
2013-02-12 13:38:00,43.2,25.8,29.70,North,354,0.0,0.0,50,0.00,,SKC,0.00,VWS V14.01,2013-02-12 18:38:00,
2013-02-12 13:39:00,43.2,25.8,29.70,North,354,0.0,0.0,50,0.00,,SKC,0.00,VWS V14.01,2013-02-12 18:39:00,
2013-02-12 13:40:00,43.2,25.8,29.70,North,354,0.0,0.0,50,0.00,,SKC,0.00,VWS V14.01,2013-02-12 18:40:00,
2013-02-12 13:42:00,42.5,25.2,29.70,NW,308,2.0,2.0,50,0.00,,SKC,0.00,VWS V14.01,2013-02-12 18:42:00,
2013-02-12 13:43:00,42.5,25.2,29.70,NW,304,1.0,2.0,50,0.00,,SKC,0.00,VWS V14.01,2013-02-12 18:43:00,
2013-02-12 13:44:00,42.5,25.2,29.71,NW,313,1.0,1.0,50,0.00,,SKC,0.00,VWS V14.01,2013-02-12 18:44:00,
2013-02-12 13:45:00,42.5,25.2,29.71,NW,313,1.0,2.0,50,0.00,,SKC,0.00,VWS V14.01,2013-02-12 18:45:00,
2013-02-12 13:48:00,42.5,25.2,29.71,NW,312,3.0,3.0,50,0.00,,SKC,0.00,VWS V14.01,2013-02-12 18:48:00,
2013-02-12 13:49:00,42.3,25.0,29.71,NNW,333,0.0,0.0,50,0.00,,SKC,0.00,VWS V14.01,2013-02-12 18:49:00,
2013-02-12 13:50:00,42.3,25.0,29.71,NNW,333,0.0,0.0,50,0.00,,SKC,0.00,VWS V14.01,2013-02-12 18:50:00,
2013-02-12 13:53:00,42.3,25.0,29.71,NW,316,1.0,1.0,50,0.00,,SKC,0.00,VWS V14.01,2013-02-12 18:53:00,
2013-02-12 13:54:00,42.3,25.0,29.71,NW,316,1.0,1.0,50,0.00,,SKC,0.00,VWS V14.01,2013-02-12 18:54:00,
2013-02-12 13:55:00,42.3,25.0,29.71,NW,316,1.0,1.0,50,0.00,,SKC,0.00,VWS V14.01,2013-02-12 18:55:00,
2013-02-12 13:58:00,42.2,25.9,29.71,NNW,337,3.0,3.0,52,0.00,,SKC,0.00,VWS V14.01,2013-02-12 18:58:00,
2013-02-12 13:59:00,42.2,25.9,29.71,NNW,337,3.0,3.0,52,0.00,,SKC,0.00,VWS V14.01,2013-02-12 18:59:00,
2013-02-12 14:00:00,42.2,25.9,29.71,NNW,337,3.0,3.0,52,0.00,,SKC,0.00,VWS V14.01,2013-02-12 19:00:00,
2013-02-12 14:01:00,42.2,25.9,29.71,NNW,337,3.0,3.0,52,0.00,,SKC,0.00,VWS V14.01,2013-02-12 19:01:00,
2013-02-12 14:03:00,42.2,25.9,29.71,NNW,337,3.0,3.0,52,0.00,,SKC,0.00,VWS V14.01,2013-02-12 19:03:00,
2013-02-12 14:05:00,42.2,25.9,29.71,NNW,329,3.0,3.0,52,0.00,,SKC,0.00,VWS V14.01,2013-02-12 19:05:00,
2013-02-12 14:06:00,42.2,25.9,29.71,NW,313,3.0,3.0,52,0.00,,SKC,0.00,VWS V14.01,2013-02-12 19:06:00,
2013-02-12 14:08:00,42.1,25.8,29.71,North,357,2.0,3.0,52,0.00,,SKC,0.00,VWS V14.01,2013-02-12 19:08:00,
2013-02-12 14:10:00,42.1,25.8,29.71,North,356,2.0,2.0,52,0.00,,SKC,0.00,VWS V14.01,2013-02-12 19:10:00,
2013-02-12 14:11:00,42.1,25.8,29.71,NW,306,0.0,2.0,52,0.00,,SKC,0.00,VWS V14.01,2013-02-12 19:11:00,
2013-02-12 14:13:00,42.1,25.8,29.71,NNW,336,2.0,2.0,52,0.00,,SKC,0.00,VWS V14.01,2013-02-12 19:13:00,
2013-02-12 14:15:00,42.2,26.3,29.71,NW,311,2.0,2.0,53,0.00,,SKC,0.00,VWS V14.01,2013-02-12 19:15:00,
2013-02-12 14:17:00,42.2,26.3,29.71,West,274,0.0,2.0,53,0.00,,SKC,0.00,VWS V14.01,2013-02-12 19:17:00,
2013-02-12 14:18:00,42.2,26.3,29.71,West,274,0.0,2.0,53,0.00,,SKC,0.00,VWS V14.01,2013-02-12 19:18:00,
2013-02-12 14:20:00,42.2,26.3,29.71,West,274,0.0,0.0,53,0.00,,SKC,0.00,VWS V14.01,2013-02-12 19:20:00,
2013-02-12 14:22:00,42.2,26.3,29.71,WNW,301,2.0,2.0,53,0.00,,SKC,0.00,VWS V14.01,2013-02-12 19:22:00,
2013-02-12 14:24:00,42.2,26.3,29.71,NW,315,3.0,3.0,53,0.00,,SKC,0.00,VWS V14.01,2013-02-12 19:24:00,
2013-02-12 14:25:00,42.2,26.3,29.71,NW,325,3.0,3.0,53,0.00,,SKC,0.00,VWS V14.01,2013-02-12 19:25:00,
2013-02-12 14:26:00,42.2,26.3,29.71,WNW,299,0.0,3.0,53,0.00,,SKC,0.00,VWS V14.01,2013-02-12 19:26:00,
2013-02-12 14:27:00,42.2,26.3,29.71,WNW,299,0.0,3.0,53,0.00,,SKC,0.00,VWS V14.01,2013-02-12 19:27:00,
2013-02-12 14:29:00,42.2,25.9,29.72,NW,313,1.0,1.0,52,0.00,,SKC,0.00,VWS V14.01,2013-02-12 19:29:00,
2013-02-12 14:30:00,42.2,25.9,29.72,NW,313,1.0,3.0,52,0.00,,SKC,0.00,VWS V14.01,2013-02-12 19:30:00,
2013-02-12 14:31:00,42.6,26.2,29.72,WNW,282,0.0,3.0,52,0.00,,SKC,0.00,VWS V14.01,2013-02-12 19:31:00,
2013-02-12 14:32:00,42.6,26.2,29.72,NNW,329,1.0,6.0,52,0.00,,SKC,0.00,VWS V14.01,2013-02-12 19:32:00,
2013-02-12 14:34:00,42.6,26.7,29.72,NW,318,0.0,0.0,53,0.00,,SKC,0.00,VWS V14.01,2013-02-12 19:34:00,
2013-02-12 14:35:00,42.6,26.7,29.72,NW,318,0.0,6.0,53,0.00,,SKC,0.00,VWS V14.01,2013-02-12 19:35:00,
2013-02-12 14:36:00,42.6,26.7,29.72,NNW,335,0.0,6.0,53,0.00,,SKC,0.00,VWS V14.01,2013-02-12 19:36:00,
2013-02-12 14:37:00,42.6,26.2,29.72,NW,318,1.0,6.0,52,0.00,,SKC,0.00,VWS V14.01,2013-02-12 19:37:00,
2013-02-12 14:40:00,42.6,26.2,29.72,NW,318,1.0,1.0,52,0.00,,SKC,0.00,VWS V14.01,2013-02-12 19:40:00,
2013-02-12 14:41:00,42.6,26.2,29.72,NW,318,1.0,1.0,52,0.00,,SKC,0.00,VWS V14.01,2013-02-12 19:41:00,
2013-02-12 14:42:00,42.6,26.2,29.72,NW,318,1.0,1.0,52,0.00,,SKC,0.00,VWS V14.01,2013-02-12 19:42:00,
2013-02-12 14:45:00,42.6,26.2,29.72,NW,318,1.0,1.0,52,0.00,,SKC,0.00,VWS V14.01,2013-02-12 19:45:00,
2013-02-12 14:46:00,42.5,26.1,29.72,NW,326,0.0,1.0,52,0.00,,SKC,0.00,VWS V14.01,2013-02-12 19:46:00,
2013-02-12 14:47:00,42.5,26.1,29.72,NW,326,0.0,1.0,52,0.00,,SKC,0.00,VWS V14.01,2013-02-12 19:47:00,
2013-02-12 14:48:00,42.5,26.1,29.72,NW,326,0.0,1.0,52,0.00,,SKC,0.00,VWS V14.01,2013-02-12 19:48:00,
2013-02-12 14:50:00,42.5,26.1,29.72,NNW,336,2.0,2.0,52,0.00,,SKC,0.00,VWS V14.01,2013-02-12 19:50:00,
2013-02-12 14:52:00,42.5,26.1,29.72,NNW,336,2.0,2.0,52,0.00,,SKC,0.00,VWS V14.01,2013-02-12 19:52:00,
2013-02-12 14:53:00,42.5,26.1,29.72,NW,326,0.0,2.0,52,0.00,,SKC,0.00,VWS V14.01,2013-02-12 19:53:00,
2013-02-12 14:55:00,42.5,26.1,29.72,NW,326,0.0,0.0,52,0.00,,SKC,0.00,VWS V14.01,2013-02-12 19:55:00,
2013-02-12 14:57:00,42.5,26.1,29.72,NNW,332,1.0,1.0,52,0.00,,SKC,0.00,VWS V14.01,2013-02-12 19:57:00,
2013-02-12 14:58:00,42.5,26.1,29.72,West,271,0.0,1.0,52,0.00,,SKC,0.00,VWS V14.01,2013-02-12 19:58:00,
2013-02-12 15:00:00,42.5,26.1,29.73,West,272,0.0,0.0,52,0.00,,SKC,0.00,VWS V14.01,2013-02-12 20:00:00,
2013-02-12 15:02:00,42.5,26.1,29.73,West,272,0.0,0.0,52,0.00,,SKC,0.00,VWS V14.01,2013-02-12 20:02:00,
2013-02-12 15:03:00,42.5,26.1,29.73,NW,315,3.0,3.0,52,0.00,,SKC,0.00,VWS V14.01,2013-02-12 20:03:00,
2013-02-12 15:05:00,42.5,26.1,29.73,NNW,332,0.0,3.0,52,0.00,,SKC,0.00,VWS V14.01,2013-02-12 20:05:00,
2013-02-12 15:07:00,42.5,26.1,29.73,NNW,332,0.0,3.0,52,0.00,,SKC,0.00,VWS V14.01,2013-02-12 20:07:00,
2013-02-12 15:08:00,42.5,26.1,29.73,NNW,332,0.0,3.0,52,0.00,,SKC,0.00,VWS V14.01,2013-02-12 20:08:00,
2013-02-12 15:10:00,42.5,26.1,29.73,NNW,337,0.0,3.0,52,0.00,,SKC,0.00,VWS V14.01,2013-02-12 20:10:00,
2013-02-12 15:11:00,42.5,26.1,29.73,NNW,347,1.0,1.0,52,0.00,,SKC,0.00,VWS V14.01,2013-02-12 20:11:00,
2013-02-12 15:12:00,42.5,26.1,29.73,NNW,328,0.0,1.0,52,0.00,,SKC,0.00,VWS V14.01,2013-02-12 20:12:00,
2013-02-12 15:13:00,42.5,26.1,29.73,NNW,328,0.0,1.0,52,0.00,,SKC,0.00,VWS V14.01,2013-02-12 20:13:00,
2013-02-12 15:14:00,42.5,26.1,29.74,NNW,335,5.0,5.0,52,0.00,,SKC,0.00,VWS V14.01,2013-02-12 20:14:00,
2013-02-12 15:15:00,42.1,25.8,29.74,NW,306,0.0,5.0,52,0.00,,SKC,0.00,VWS V14.01,2013-02-12 20:15:00,
2013-02-12 15:16:00,41.9,26.5,29.74,NW,304,1.0,2.0,54,0.00,,SKC,0.00,VWS V14.01,2013-02-12 20:16:00,
2013-02-12 15:18:00,41.8,26.4,29.74,NW,312,2.0,4.0,54,0.00,,SKC,0.00,VWS V14.01,2013-02-12 20:18:00,
2013-02-12 15:19:00,41.8,25.9,29.74,NW,312,0.0,4.0,53,0.00,,SKC,0.00,VWS V14.01,2013-02-12 20:19:00,
2013-02-12 15:20:00,41.8,25.9,29.74,NW,312,0.0,4.0,53,0.00,,SKC,0.00,VWS V14.01,2013-02-12 20:20:00,
2013-02-12 15:21:00,41.8,25.9,29.74,NW,311,1.0,1.0,53,0.00,,SKC,0.00,VWS V14.01,2013-02-12 20:21:00,
2013-02-12 15:23:00,41.8,25.9,29.74,NW,311,1.0,1.0,53,0.00,,SKC,0.00,VWS V14.01,2013-02-12 20:23:00,
2013-02-12 15:24:00,41.8,25.9,29.74,NW,311,1.0,1.0,53,0.00,,SKC,0.00,VWS V14.01,2013-02-12 20:24:00,
2013-02-12 15:25:00,41.8,25.9,29.74,NW,311,1.0,1.0,53,0.00,,SKC,0.00,VWS V14.01,2013-02-12 20:25:00,
2013-02-12 15:27:00,41.8,25.9,29.74,NNW,333,0.0,1.0,53,0.00,,SKC,0.00,VWS V14.01,2013-02-12 20:27:00,
2013-02-12 15:28:00,41.8,25.9,29.74,NNW,333,0.0,1.0,53,0.00,,SKC,0.00,VWS V14.01,2013-02-12 20:28:00,
2013-02-12 15:29:00,41.8,25.9,29.73,NNW,333,0.0,1.0,53,0.00,,SKC,0.00,VWS V14.01,2013-02-12 20:29:00,
2013-02-12 15:30:00,41.8,25.9,29.73,WNW,295,2.0,2.0,53,0.00,,SKC,0.00,VWS V14.01,2013-02-12 20:30:00,
2013-02-12 15:32:00,41.9,25.6,29.73,NW,308,1.0,2.0,52,0.00,,SKC,0.00,VWS V14.01,2013-02-12 20:32:00,
2013-02-12 15:33:00,41.9,25.6,29.73,NW,308,1.0,2.0,52,0.00,,SKC,0.00,VWS V14.01,2013-02-12 20:33:00,
2013-02-12 15:34:00,41.9,25.6,29.73,WNW,282,1.0,7.0,52,0.00,,SKC,0.00,VWS V14.01,2013-02-12 20:34:00,
2013-02-12 15:35:00,41.9,25.6,29.73,NW,306,0.0,1.0,52,0.00,,SKC,0.00,VWS V14.01,2013-02-12 20:35:00,
2013-02-12 15:37:00,41.9,25.6,29.73,WSW,250,0.0,2.0,52,0.00,,SKC,0.00,VWS V14.01,2013-02-12 20:37:00,
2013-02-12 15:38:00,41.9,25.6,29.73,North,349,0.0,2.0,52,0.00,,SKC,0.00,VWS V14.01,2013-02-12 20:38:00,
2013-02-12 15:39:00,41.9,25.6,29.73,North,349,0.0,2.0,52,0.00,,SKC,0.00,VWS V14.01,2013-02-12 20:39:00,
2013-02-12 15:40:00,41.9,25.6,29.73,NNW,335,1.0,1.0,52,0.00,,SKC,0.00,VWS V14.01,2013-02-12 20:40:00,
2013-02-12 15:43:00,41.9,25.6,29.73,WNW,291,0.0,1.0,52,0.00,,SKC,0.00,VWS V14.01,2013-02-12 20:43:00,
2013-02-12 15:44:00,41.9,25.6,29.73,WNW,291,0.0,0.0,52,0.00,,SKC,0.00,VWS V14.01,2013-02-12 20:44:00,
2013-02-12 15:45:00,41.9,25.6,29.73,WNW,291,0.0,0.0,52,0.00,,SKC,0.00,VWS V14.01,2013-02-12 20:45:00,
2013-02-12 15:46:00,41.9,25.6,29.73,WNW,291,0.0,0.0,52,0.00,,SKC,0.00,VWS V14.01,2013-02-12 20:46:00,
2013-02-12 15:48:00,41.9,26.0,29.73,NNW,346,6.0,6.0,53,0.00,,SKC,0.00,VWS V14.01,2013-02-12 20:48:00,
2013-02-12 15:50:00,41.6,25.8,29.73,NW,326,0.0,6.0,53,0.00,,SKC,0.00,VWS V14.01,2013-02-12 20:50:00,
2013-02-12 15:51:00,41.6,25.8,29.73,NW,323,1.0,6.0,53,0.00,,SKC,0.00,VWS V14.01,2013-02-12 20:51:00,
2013-02-12 15:54:00,41.6,25.8,29.73,NW,316,0.0,6.0,53,0.00,,SKC,0.00,VWS V14.01,2013-02-12 20:54:00,
2013-02-12 15:55:00,41.6,25.8,29.73,NW,316,0.0,6.0,53,0.00,,SKC,0.00,VWS V14.01,2013-02-12 20:55:00,
2013-02-12 15:56:00,41.6,26.2,29.73,WNW,292,0.0,0.0,54,0.00,,SKC,0.00,VWS V14.01,2013-02-12 20:56:00,
2013-02-12 15:59:00,41.6,26.2,29.73,WNW,294,1.0,1.0,54,0.00,,SKC,0.00,VWS V14.01,2013-02-12 20:59:00,
2013-02-12 16:00:00,41.6,26.2,29.73,WNW,294,1.0,1.0,54,0.00,,SKC,0.00,VWS V14.01,2013-02-12 21:00:00,
2013-02-12 16:01:00,41.6,26.2,29.73,WNW,294,1.0,1.0,54,0.00,,SKC,0.00,VWS V14.01,2013-02-12 21:01:00,
2013-02-12 16:02:00,41.8,26.4,29.73,NW,325,2.0,5.0,54,0.00,,SKC,0.00,VWS V14.01,2013-02-12 21:02:00,
2013-02-12 16:05:00,41.8,26.4,29.73,WNW,289,2.0,2.0,54,0.00,,SKC,0.00,VWS V14.01,2013-02-12 21:05:00,
2013-02-12 16:06:00,41.8,26.4,29.73,WNW,282,1.0,5.0,54,0.00,,SKC,0.00,VWS V14.01,2013-02-12 21:06:00,
2013-02-12 16:07:00,41.8,26.4,29.73,North,357,2.0,5.0,54,0.00,,SKC,0.00,VWS V14.01,2013-02-12 21:07:00,
2013-02-12 16:10:00,41.6,25.8,29.73,WNW,298,2.0,2.0,53,0.00,,SKC,0.00,VWS V14.01,2013-02-12 21:10:00,
2013-02-12 16:11:00,41.6,25.8,29.73,NW,325,6.0,6.0,53,0.00,,SKC,0.00,VWS V14.01,2013-02-12 21:11:00,
2013-02-12 16:12:00,41.5,25.7,29.73,West,274,6.0,6.0,53,0.00,,SKC,0.00,VWS V14.01,2013-02-12 21:12:00,
2013-02-12 16:15:00,41.3,25.9,29.73,NW,320,0.0,0.0,54,0.00,,SKC,0.00,VWS V14.01,2013-02-12 21:15:00,
2013-02-12 16:16:00,41.3,25.9,29.73,NW,325,3.0,3.0,54,0.00,,SKC,0.00,VWS V14.01,2013-02-12 21:16:00,
2013-02-12 16:17:00,41.3,25.9,29.73,NW,325,3.0,3.0,54,0.00,,SKC,0.00,VWS V14.01,2013-02-12 21:17:00,
2013-02-12 16:20:00,41.3,25.9,29.73,WNW,296,0.0,0.0,54,0.00,,SKC,0.00,VWS V14.01,2013-02-12 21:20:00,
2013-02-12 16:21:00,41.3,25.9,29.73,NW,320,3.0,3.0,54,0.00,,SKC,0.00,VWS V14.01,2013-02-12 21:21:00,
2013-02-12 16:22:00,41.3,25.9,29.73,WNW,285,3.0,3.0,54,0.00,,SKC,0.00,VWS V14.01,2013-02-12 21:22:00,
2013-02-12 16:25:00,41.2,25.8,29.73,NW,326,5.0,5.0,54,0.00,,SKC,0.00,VWS V14.01,2013-02-12 21:25:00,
2013-02-12 16:27:00,41.1,25.7,29.73,NW,315,0.0,5.0,54,0.00,,SKC,0.00,VWS V14.01,2013-02-12 21:27:00,
2013-02-12 16:28:00,41.1,25.7,29.73,WNW,299,1.0,5.0,54,0.00,,SKC,0.00,VWS V14.01,2013-02-12 21:28:00,
2013-02-12 16:30:00,40.9,26.0,29.73,WNW,299,0.0,5.0,55,0.00,,SKC,0.00,VWS V14.01,2013-02-12 21:30:00,
2013-02-12 16:32:00,40.6,25.7,29.73,NNW,328,1.0,3.0,55,0.00,,SKC,0.00,VWS V14.01,2013-02-12 21:32:00,
2013-02-12 16:33:00,40.6,25.7,29.73,NNW,328,1.0,3.0,55,0.00,,SKC,0.00,VWS V14.01,2013-02-12 21:33:00,
2013-02-12 16:35:00,40.6,25.7,29.73,NNW,328,1.0,3.0,55,0.00,,SKC,0.00,VWS V14.01,2013-02-12 21:35:00,
2013-02-12 16:37:00,40.6,26.1,29.73,NW,318,2.0,2.0,56,0.00,,SKC,0.00,VWS V14.01,2013-02-12 21:37:00,
2013-02-12 16:38:00,40.6,26.1,29.73,NW,318,2.0,2.0,56,0.00,,SKC,0.00,VWS V14.01,2013-02-12 21:38:00,
2013-02-12 16:40:00,40.6,26.1,29.73,NW,318,2.0,2.0,56,0.00,,SKC,0.00,VWS V14.01,2013-02-12 21:40:00,
2013-02-12 16:42:00,39.9,25.5,29.73,NW,316,1.0,6.0,56,0.00,,SKC,0.00,VWS V14.01,2013-02-12 21:42:00,
2013-02-12 16:43:00,39.9,25.5,29.73,NW,318,1.0,6.0,56,0.00,,SKC,0.00,VWS V14.01,2013-02-12 21:43:00,
2013-02-12 16:45:00,39.9,25.5,29.72,NNW,337,4.0,6.0,56,0.00,,SKC,0.00,VWS V14.01,2013-02-12 21:45:00,
2013-02-12 16:48:00,39.8,25.4,29.72,WSW,258,0.0,6.0,56,0.00,,SKC,0.00,VWS V14.01,2013-02-12 21:48:00,
2013-02-12 16:50:00,39.8,25.4,29.72,WNW,291,0.0,6.0,56,0.00,,SKC,0.00,VWS V14.01,2013-02-12 21:50:00,
2013-02-12 16:53:00,39.5,25.1,29.72,NW,320,5.0,6.0,56,0.00,,SKC,0.00,VWS V14.01,2013-02-12 21:53:00,
2013-02-12 16:54:00,39.5,25.1,29.72,NW,320,7.0,7.0,56,0.00,,SKC,0.00,VWS V14.01,2013-02-12 21:54:00,
2013-02-12 16:55:00,39.5,25.1,29.72,NNW,332,1.0,7.0,56,0.00,,SKC,0.00,VWS V14.01,2013-02-12 21:55:00,
2013-02-12 16:58:00,39.3,26.2,29.72,SE,145,0.0,1.0,59,0.00,,SKC,0.00,VWS V14.01,2013-02-12 21:58:00,
2013-02-12 16:59:00,39.3,26.2,29.72,SE,141,0.0,1.0,59,0.00,,SKC,0.00,VWS V14.01,2013-02-12 21:59:00,
2013-02-12 17:00:00,39.3,26.2,29.72,SE,141,0.0,1.0,59,0.00,,SKC,0.00,VWS V14.01,2013-02-12 22:00:00,
2013-02-12 17:04:00,39.1,26.0,29.72,NW,318,3.0,5.0,59,0.00,,SKC,0.00,VWS V14.01,2013-02-12 22:04:00,
2013-02-12 17:05:00,39.1,25.6,29.72,NNW,336,3.0,5.0,58,0.00,,SKC,0.00,VWS V14.01,2013-02-12 22:05:00,
2013-02-12 17:09:00,39.1,26.0,29.72,WNW,299,0.0,8.0,59,0.00,,SKC,0.00,VWS V14.01,2013-02-12 22:09:00,
2013-02-12 17:10:00,39.1,26.0,29.72,NW,304,0.0,8.0,59,0.00,,SKC,0.00,VWS V14.01,2013-02-12 22:10:00,
2013-02-12 17:14:00,38.9,25.8,29.73,NW,316,1.0,3.0,59,0.00,,SKC,0.00,VWS V14.01,2013-02-12 22:14:00,
2013-02-12 17:15:00,38.9,25.8,29.73,WNW,285,1.0,2.0,59,0.00,,SKC,0.00,VWS V14.01,2013-02-12 22:15:00,
2013-02-12 17:19:00,38.8,25.7,29.73,NW,306,0.0,3.0,59,0.00,,SKC,0.00,VWS V14.01,2013-02-12 22:19:00,
2013-02-12 17:20:00,38.8,25.7,29.73,NW,308,0.0,0.0,59,0.00,,SKC,0.00,VWS V14.01,2013-02-12 22:20:00,
2013-02-12 17:24:00,38.6,26.3,29.73,NNW,332,0.0,0.0,61,0.00,,SKC,0.00,VWS V14.01,2013-02-12 22:24:00,
2013-02-12 17:25:00,38.6,26.3,29.73,NNW,332,0.0,0.0,61,0.00,,SKC,0.00,VWS V14.01,2013-02-12 22:25:00,
2013-02-12 17:30:00,38.3,26.0,29.73,WNW,291,0.0,0.0,61,0.00,,SKC,0.00,VWS V14.01,2013-02-12 22:30:00,
2013-02-12 17:31:00,38.3,26.0,29.73,WNW,292,0.0,0.0,61,0.00,,SKC,0.00,VWS V14.01,2013-02-12 22:31:00,
2013-02-12 17:35:00,38.2,26.0,29.73,NW,315,0.0,0.0,61,0.00,,SKC,0.00,VWS V14.01,2013-02-12 22:35:00,
2013-02-12 17:36:00,38.2,26.0,29.73,NW,315,0.0,0.0,61,0.00,,SKC,0.00,VWS V14.01,2013-02-12 22:36:00,
2013-02-12 17:40:00,38.0,25.8,29.73,NW,322,0.0,0.0,61,0.00,,SKC,0.00,VWS V14.01,2013-02-12 22:40:00,
2013-02-12 17:41:00,38.0,25.8,29.73,NW,320,0.0,0.0,61,0.00,,SKC,0.00,VWS V14.01,2013-02-12 22:41:00,
2013-02-12 17:42:00,38.0,25.8,29.73,West,274,1.0,2.0,61,0.00,,SKC,0.00,VWS V14.01,2013-02-12 22:42:00,
2013-02-12 17:45:00,38.0,25.8,29.74,NNW,332,0.0,0.0,61,0.00,,SKC,0.00,VWS V14.01,2013-02-12 22:45:00,
2013-02-12 17:46:00,38.0,25.8,29.74,NNW,332,0.0,0.0,61,0.00,,SKC,0.00,VWS V14.01,2013-02-12 22:46:00,
2013-02-12 17:47:00,38.0,25.8,29.74,NNW,330,0.0,0.0,61,0.00,,SKC,0.00,VWS V14.01,2013-02-12 22:47:00,
2013-02-12 17:50:00,38.2,25.5,29.74,NW,318,0.0,7.0,60,0.00,,SKC,0.00,VWS V14.01,2013-02-12 22:50:00,
2013-02-12 17:51:00,38.2,25.5,29.74,North,349,0.0,7.0,60,0.00,,SKC,0.00,VWS V14.01,2013-02-12 22:51:00,
2013-02-12 17:52:00,38.2,25.5,29.74,North,349,0.0,7.0,60,0.00,,SKC,0.00,VWS V14.01,2013-02-12 22:52:00,
2013-02-12 17:55:00,38.2,26.0,29.74,NNW,346,0.0,0.0,61,0.00,,SKC,0.00,VWS V14.01,2013-02-12 22:55:00,
2013-02-12 17:57:00,38.2,26.0,29.74,NNW,346,0.0,0.0,61,0.00,,SKC,0.00,VWS V14.01,2013-02-12 22:57:00,
2013-02-12 18:00:00,38.2,26.0,29.73,NW,323,0.0,1.0,61,0.00,,SKC,0.00,VWS V14.01,2013-02-12 23:00:00,
2013-02-12 18:02:00,38.2,26.0,29.73,NW,326,0.0,1.0,61,0.00,,SKC,0.00,VWS V14.01,2013-02-12 23:02:00,
2013-02-12 18:05:00,38.0,26.1,29.73,NNW,328,0.0,0.0,62,0.00,,SKC,0.00,VWS V14.01,2013-02-12 23:05:00,
2013-02-12 18:07:00,37.9,26.1,29.73,WNW,296,1.0,1.0,62,0.00,,SKC,0.00,VWS V14.01,2013-02-12 23:07:00,
2013-02-12 18:08:00,37.9,26.5,29.73,WNW,301,1.0,1.0,63,0.00,,SKC,0.00,VWS V14.01,2013-02-12 23:08:00,
2013-02-12 18:10:00,37.8,26.4,29.73,NW,311,1.0,2.0,63,0.00,,SKC,0.00,VWS V14.01,2013-02-12 23:10:00,
2013-02-12 18:12:00,37.6,26.2,29.73,WNW,291,3.0,3.0,63,0.00,,SKC,0.00,VWS V14.01,2013-02-12 23:12:00,
2013-02-12 18:13:00,37.6,26.2,29.73,WNW,291,1.0,3.0,63,0.00,,SKC,0.00,VWS V14.01,2013-02-12 23:13:00,
2013-02-12 18:15:00,37.6,26.2,29.74,WNW,292,0.0,3.0,63,0.00,,SKC,0.00,VWS V14.01,2013-02-12 23:15:00,
2013-02-12 18:16:00,37.6,26.5,29.74,WNW,291,0.0,0.0,64,0.00,,SKC,0.00,VWS V14.01,2013-02-12 23:16:00,
2013-02-12 18:18:00,37.5,26.5,29.74,WNW,302,0.0,0.0,64,0.00,,SKC,0.00,VWS V14.01,2013-02-12 23:18:00,
2013-02-12 18:20:00,37.5,26.5,29.74,WNW,301,1.0,1.0,64,0.00,,SKC,0.00,VWS V14.01,2013-02-12 23:20:00,
2013-02-12 18:21:00,37.5,26.5,29.74,NW,325,2.0,2.0,64,0.00,,SKC,0.00,VWS V14.01,2013-02-12 23:21:00,
2013-02-12 18:23:00,37.6,26.5,29.74,WNW,291,0.0,2.0,64,0.00,,SKC,0.00,VWS V14.01,2013-02-12 23:23:00,
2013-02-12 18:24:00,37.6,26.5,29.74,WNW,289,0.0,2.0,64,0.00,,SKC,0.00,VWS V14.01,2013-02-12 23:24:00,
2013-02-12 18:25:00,37.6,26.5,29.74,WNW,289,0.0,2.0,64,0.00,,SKC,0.00,VWS V14.01,2013-02-12 23:25:00,
2013-02-12 18:26:00,37.6,26.5,29.74,WNW,289,0.0,0.0,64,0.00,,SKC,0.00,VWS V14.01,2013-02-12 23:26:00,
2013-02-12 18:28:00,37.6,26.5,29.74,WNW,289,0.0,0.0,64,0.00,,SKC,0.00,VWS V14.01,2013-02-12 23:28:00,
2013-02-12 18:29:00,37.6,26.5,29.75,WNW,285,0.0,0.0,64,0.00,,SKC,0.00,VWS V14.01,2013-02-12 23:29:00,
2013-02-12 18:30:00,37.6,26.5,29.75,WNW,288,0.0,0.0,64,0.00,,SKC,0.00,VWS V14.01,2013-02-12 23:30:00,
2013-02-12 18:31:00,37.6,26.2,29.75,NW,322,0.0,2.0,63,0.00,,SKC,0.00,VWS V14.01,2013-02-12 23:31:00,
2013-02-12 18:33:00,37.5,26.1,29.75,NW,319,0.0,2.0,63,0.00,,SKC,0.00,VWS V14.01,2013-02-12 23:33:00,
2013-02-12 18:34:00,37.5,26.1,29.75,NW,318,0.0,2.0,63,0.00,,SKC,0.00,VWS V14.01,2013-02-12 23:34:00,
2013-02-12 18:35:00,37.5,26.1,29.75,NW,319,0.0,0.0,63,0.00,,SKC,0.00,VWS V14.01,2013-02-12 23:35:00,
2013-02-12 18:36:00,37.5,26.1,29.75,NW,320,0.0,0.0,63,0.00,,SKC,0.00,VWS V14.01,2013-02-12 23:36:00,
2013-02-12 18:38:00,37.6,26.2,29.75,NW,319,0.0,0.0,63,0.00,,SKC,0.00,VWS V14.01,2013-02-12 23:38:00,
2013-02-12 18:39:00,37.6,26.2,29.75,NW,319,0.0,0.0,63,0.00,,SKC,0.00,VWS V14.01,2013-02-12 23:39:00,
2013-02-12 18:40:00,37.6,26.2,29.75,NW,318,0.0,0.0,63,0.00,,SKC,0.00,VWS V14.01,2013-02-12 23:40:00,
2013-02-12 18:41:00,37.6,25.8,29.75,NW,318,0.0,0.0,62,0.00,,SKC,0.00,VWS V14.01,2013-02-12 23:41:00,
2013-02-12 18:44:00,37.6,26.2,29.76,NW,319,0.0,0.0,63,0.00,,SKC,0.00,VWS V14.01,2013-02-12 23:44:00,
2013-02-12 18:45:00,37.6,26.2,29.76,NW,320,0.0,0.0,63,0.00,,SKC,0.00,VWS V14.01,2013-02-12 23:45:00,
2013-02-12 18:46:00,37.6,26.2,29.76,NW,319,0.0,0.0,63,0.00,,SKC,0.00,VWS V14.01,2013-02-12 23:46:00,
2013-02-12 18:49:00,37.5,26.1,29.76,NW,322,0.0,3.0,63,0.00,,SKC,0.00,VWS V14.01,2013-02-12 23:49:00,
2013-02-12 18:50:00,37.5,26.5,29.76,NW,322,0.0,0.0,64,0.00,,SKC,0.00,VWS V14.01,2013-02-12 23:50:00,
2013-02-12 18:51:00,37.5,26.5,29.76,NW,323,0.0,0.0,64,0.00,,SKC,0.00,VWS V14.01,2013-02-12 23:51:00,
2013-02-12 18:55:00,37.3,25.9,29.76,WNW,298,1.0,1.0,63,0.00,,SKC,0.00,VWS V14.01,2013-02-12 23:55:00,
2013-02-12 18:56:00,37.3,25.9,29.76,WNW,301,0.0,1.0,63,0.00,,SKC,0.00,VWS V14.01,2013-02-12 23:56:00,
2013-02-12 19:00:00,37.5,26.1,29.78,WNW,296,1.0,1.0,63,0.00,,SKC,0.00,VWS V14.01,2013-02-13 00:00:00,
2013-02-12 19:01:00,37.5,26.1,29.78,WNW,299,1.0,1.0,63,0.00,,SKC,0.00,VWS V14.01,2013-02-13 00:01:00,
2013-02-12 19:05:00,37.5,26.1,29.78,WNW,289,0.0,0.0,63,0.00,,SKC,0.00,VWS V14.01,2013-02-13 00:05:00,
2013-02-12 19:06:00,37.5,26.1,29.78,WNW,292,1.0,1.0,63,0.00,,SKC,0.00,VWS V14.01,2013-02-13 00:06:00,
2013-02-12 19:10:00,37.6,26.2,29.78,WNW,284,0.0,0.0,63,0.00,,SKC,0.00,VWS V14.01,2013-02-13 00:10:00,
2013-02-12 19:11:00,37.6,26.2,29.78,WNW,284,0.0,0.0,63,0.00,,SKC,0.00,VWS V14.01,2013-02-13 00:11:00,
2013-02-12 19:15:00,37.6,26.2,29.80,WNW,284,0.0,0.0,63,0.00,,SKC,0.00,VWS V14.01,2013-02-13 00:15:00,
2013-02-12 19:16:00,37.6,26.2,29.80,WNW,284,0.0,0.0,63,0.00,,SKC,0.00,VWS V14.01,2013-02-13 00:16:00,
2013-02-12 19:17:00,37.6,26.2,29.80,SW,229,0.0,0.0,63,0.00,,SKC,0.00,VWS V14.01,2013-02-13 00:17:00,
2013-02-12 19:20:00,37.6,26.2,29.80,SW,233,0.0,0.0,63,0.00,,SKC,0.00,VWS V14.01,2013-02-13 00:20:00,
2013-02-12 19:21:00,37.5,26.1,29.80,WNW,299,1.0,3.0,63,0.00,,SKC,0.00,VWS V14.01,2013-02-13 00:21:00,
2013-02-12 19:22:00,37.5,26.1,29.80,WNW,299,1.0,3.0,63,0.00,,SKC,0.00,VWS V14.01,2013-02-13 00:22:00,
2013-02-12 19:25:00,37.5,26.1,29.80,WNW,289,0.0,3.0,63,0.00,,SKC,0.00,VWS V14.01,2013-02-13 00:25:00,
2013-02-12 19:26:00,37.5,26.1,29.80,WNW,302,1.0,1.0,63,0.00,,SKC,0.00,VWS V14.01,2013-02-13 00:26:00,
2013-02-12 19:27:00,37.5,26.1,29.80,WNW,302,1.0,1.0,63,0.00,,SKC,0.00,VWS V14.01,2013-02-13 00:27:00,
2013-02-12 19:30:00,37.5,26.1,29.82,North,356,0.0,1.0,63,0.00,,SKC,0.00,VWS V14.01,2013-02-13 00:30:00,
2013-02-12 19:32:00,37.5,26.1,29.82,North,349,0.0,0.0,63,0.00,,SKC,0.00,VWS V14.01,2013-02-13 00:32:00,
2013-02-12 19:35:00,37.5,26.1,29.82,NNW,347,0.0,0.0,63,0.00,,SKC,0.00,VWS V14.01,2013-02-13 00:35:00,
2013-02-12 19:37:00,37.5,26.1,29.82,NW,325,0.0,0.0,63,0.00,,SKC,0.00,VWS V14.01,2013-02-13 00:37:00,
2013-02-12 19:38:00,37.5,26.1,29.82,NW,325,0.0,0.0,63,0.00,,SKC,0.00,VWS V14.01,2013-02-13 00:38:00,
2013-02-12 19:40:00,37.5,26.1,29.82,NW,319,0.0,0.0,63,0.00,,SKC,0.00,VWS V14.01,2013-02-13 00:40:00,
2013-02-12 19:42:00,37.5,26.1,29.82,WNW,282,0.0,0.0,63,0.00,,SKC,0.00,VWS V14.01,2013-02-13 00:42:00,
2013-02-12 19:43:00,37.5,26.1,29.82,WNW,287,2.0,2.0,63,0.00,,SKC,0.00,VWS V14.01,2013-02-13 00:43:00,
2013-02-12 19:45:00,37.3,25.9,29.84,NW,325,0.0,5.0,63,0.00,,SKC,0.00,VWS V14.01,2013-02-13 00:45:00,
2013-02-12 19:47:00,37.3,25.9,29.84,WNW,302,1.0,2.0,63,0.00,,SKC,0.00,VWS V14.01,2013-02-13 00:47:00,
2013-02-12 19:48:00,37.3,25.9,29.84,WNW,285,1.0,6.0,63,0.00,,SKC,0.00,VWS V14.01,2013-02-13 00:48:00,
2013-02-12 19:50:00,37.5,26.1,29.84,West,272,3.0,6.0,63,0.00,,SKC,0.00,VWS V14.01,2013-02-13 00:50:00,
2013-02-12 19:53:00,37.5,26.1,29.84,WNW,285,2.0,3.0,63,0.00,,SKC,0.00,VWS V14.01,2013-02-13 00:53:00,
2013-02-12 19:54:00,37.5,26.1,29.84,NW,311,1.0,3.0,63,0.00,,SKC,0.00,VWS V14.01,2013-02-13 00:54:00,
2013-02-12 19:55:00,37.5,26.1,29.84,NW,311,1.0,3.0,63,0.00,,SKC,0.00,VWS V14.01,2013-02-13 00:55:00,
2013-02-12 19:58:00,37.5,25.7,29.84,West,271,0.0,4.0,62,0.00,,SKC,0.00,VWS V14.01,2013-02-13 00:58:00,
2013-02-12 19:59:00,37.5,25.7,29.85,West,277,0.0,4.0,62,0.00,,SKC,0.00,VWS V14.01,2013-02-13 00:59:00,
2013-02-12 20:00:00,37.5,25.7,29.85,West,277,0.0,4.0,62,0.00,,SKC,0.00,VWS V14.01,2013-02-13 01:00:00,
2013-02-12 20:03:00,37.3,25.9,29.85,WNW,294,0.0,3.0,63,0.00,,SKC,0.00,VWS V14.01,2013-02-13 01:03:00,
2013-02-12 20:04:00,37.3,25.5,29.85,WNW,291,0.0,3.0,62,0.00,,SKC,0.00,VWS V14.01,2013-02-13 01:04:00,
2013-02-12 20:05:00,37.3,25.5,29.85,WNW,292,0.0,3.0,62,0.00,,SKC,0.00,VWS V14.01,2013-02-13 01:05:00,
2013-02-12 20:08:00,37.3,25.5,29.85,WNW,301,0.0,2.0,62,0.00,,SKC,0.00,VWS V14.01,2013-02-13 01:08:00,
2013-02-12 20:09:00,37.3,25.5,29.85,West,280,6.0,8.0,62,0.00,,SKC,0.00,VWS V14.01,2013-02-13 01:09:00,
2013-02-12 20:10:00,37.3,25.5,29.85,West,271,3.0,8.0,62,0.00,,SKC,0.00,VWS V14.01,2013-02-13 01:10:00,
2013-02-12 20:13:00,37.5,25.7,29.85,NNW,347,1.0,3.0,62,0.00,,SKC,0.00,VWS V14.01,2013-02-13 01:13:00,
2013-02-12 20:14:00,37.5,25.7,29.86,West,275,0.0,3.0,62,0.00,,SKC,0.00,VWS V14.01,2013-02-13 01:14:00,
2013-02-12 20:15:00,37.5,25.7,29.86,West,275,0.0,0.0,62,0.00,,SKC,0.00,VWS V14.01,2013-02-13 01:15:00,
2013-02-12 20:19:00,37.5,25.7,29.86,WNW,298,3.0,3.0,62,0.00,,SKC,0.00,VWS V14.01,2013-02-13 01:19:00,
2013-02-12 20:20:00,37.5,25.3,29.86,NNW,328,0.0,1.0,61,0.00,,SKC,0.00,VWS V14.01,2013-02-13 01:20:00,
2013-02-12 20:24:00,37.3,25.5,29.86,NNW,330,5.0,6.0,62,0.00,,SKC,0.00,VWS V14.01,2013-02-13 01:24:00,
2013-02-12 20:25:00,37.3,25.5,29.86,NW,316,0.0,2.0,62,0.00,,SKC,0.00,VWS V14.01,2013-02-13 01:25:00,
2013-02-12 20:26:00,37.3,25.5,29.86,NW,305,3.0,3.0,62,0.00,,SKC,0.00,VWS V14.01,2013-02-13 01:26:00,
2013-02-12 20:29:00,37.2,25.4,29.85,NW,311,0.0,6.0,62,0.00,,SKC,0.00,VWS V14.01,2013-02-13 01:29:00,
2013-02-12 20:30:00,37.2,25.4,29.85,NW,311,0.0,0.0,62,0.00,,SKC,0.00,VWS V14.01,2013-02-13 01:30:00,
2013-02-12 20:31:00,37.2,25.4,29.85,NNW,332,0.0,6.0,62,0.00,,SKC,0.00,VWS V14.01,2013-02-13 01:31:00,
2013-02-12 20:34:00,37.0,25.2,29.85,NW,304,1.0,6.0,62,0.00,,SKC,0.00,VWS V14.01,2013-02-13 01:34:00,
2013-02-12 20:35:00,37.0,25.2,29.85,NNW,340,2.0,3.0,62,0.00,,SKC,0.00,VWS V14.01,2013-02-13 01:35:00,
2013-02-12 20:36:00,37.0,25.2,29.85,West,281,6.0,6.0,62,0.00,,SKC,0.00,VWS V14.01,2013-02-13 01:36:00,
2013-02-12 20:39:00,36.9,25.1,29.85,NW,312,0.0,6.0,62,0.00,,SKC,0.00,VWS V14.01,2013-02-13 01:39:00,
2013-02-12 20:40:00,36.9,25.1,29.85,WNW,291,0.0,3.0,62,0.00,,SKC,0.00,VWS V14.01,2013-02-13 01:40:00,
2013-02-12 20:41:00,36.9,25.1,29.85,NW,306,5.0,5.0,62,0.00,,SKC,0.00,VWS V14.01,2013-02-13 01:41:00,
2013-02-12 20:42:00,36.9,25.1,29.85,NW,326,1.0,5.0,62,0.00,,SKC,0.00,VWS V14.01,2013-02-13 01:42:00,
2013-02-12 20:44:00,36.8,25.0,29.85,WNW,302,0.0,5.0,62,0.00,,SKC,0.00,VWS V14.01,2013-02-13 01:44:00,
2013-02-12 20:45:00,36.8,25.0,29.85,NW,313,0.0,2.0,62,0.00,,SKC,0.00,VWS V14.01,2013-02-13 01:45:00,
2013-02-12 20:46:00,36.8,25.0,29.85,West,280,1.0,2.0,62,0.00,,SKC,0.00,VWS V14.01,2013-02-13 01:46:00,
2013-02-12 20:47:00,36.8,25.0,29.85,WNW,282,0.0,2.0,62,0.00,,SKC,0.00,VWS V14.01,2013-02-13 01:47:00,
2013-02-12 20:49:00,36.6,24.8,29.85,WNW,291,0.0,2.0,62,0.00,,SKC,0.00,VWS V14.01,2013-02-13 01:49:00,
2013-02-12 20:50:00,36.6,24.8,29.85,NNW,328,6.0,6.0,62,0.00,,SKC,0.00,VWS V14.01,2013-02-13 01:50:00,
2013-02-12 20:51:00,36.6,24.8,29.85,NW,306,0.0,6.0,62,0.00,,SKC,0.00,VWS V14.01,2013-02-13 01:51:00,
2013-02-12 20:52:00,36.6,24.8,29.85,WNW,301,0.0,6.0,62,0.00,,SKC,0.00,VWS V14.01,2013-02-13 01:52:00,
2013-02-12 20:54:00,36.5,24.7,29.85,NNW,346,0.0,6.0,62,0.00,,SKC,0.00,VWS V14.01,2013-02-13 01:54:00,
2013-02-12 20:55:00,36.5,24.7,29.85,NNW,346,0.0,6.0,62,0.00,,SKC,0.00,VWS V14.01,2013-02-13 01:55:00,
2013-02-12 20:56:00,36.5,24.7,29.85,WNW,294,0.0,0.0,62,0.00,,SKC,0.00,VWS V14.01,2013-02-13 01:56:00,
2013-02-12 20:57:00,36.5,24.7,29.85,WNW,295,0.0,0.0,62,0.00,,SKC,0.00,VWS V14.01,2013-02-13 01:57:00,
2013-02-12 20:59:00,36.3,24.9,29.84,NW,306,0.0,0.0,63,0.00,,SKC,0.00,VWS V14.01,2013-02-13 01:59:00,
2013-02-12 21:00:00,36.3,24.9,29.84,NW,306,0.0,0.0,63,0.00,,SKC,0.00,VWS V14.01,2013-02-13 02:00:00,
2013-02-12 21:01:00,36.3,24.9,29.84,WNW,282,0.0,0.0,63,0.00,,SKC,0.00,VWS V14.01,2013-02-13 02:01:00,
2013-02-12 21:02:00,36.3,24.9,29.84,WNW,292,0.0,0.0,63,0.00,,SKC,0.00,VWS V14.01,2013-02-13 02:02:00,
2013-02-12 21:05:00,36.2,24.8,29.84,NW,315,0.0,0.0,63,0.00,,SKC,0.00,VWS V14.01,2013-02-13 02:05:00,
2013-02-12 21:06:00,36.2,24.8,29.84,NNW,330,0.0,0.0,63,0.00,,SKC,0.00,VWS V14.01,2013-02-13 02:06:00,
2013-02-12 21:07:00,36.2,24.8,29.84,NNW,330,0.0,0.0,63,0.00,,SKC,0.00,VWS V14.01,2013-02-13 02:07:00,
2013-02-12 21:10:00,36.0,25.0,29.84,NNW,332,0.0,0.0,64,0.00,,SKC,0.00,VWS V14.01,2013-02-13 02:10:00,
2013-02-12 21:12:00,35.9,24.9,29.84,NNW,328,0.0,0.0,64,0.00,,SKC,0.00,VWS V14.01,2013-02-13 02:12:00,
2013-02-12 21:13:00,35.8,24.8,29.83,NNW,328,0.0,0.0,64,0.00,,SKC,0.00,VWS V14.01,2013-02-13 02:13:00,
2013-02-12 21:15:00,35.8,24.8,29.83,NNW,328,0.0,0.0,64,0.00,,SKC,0.00,VWS V14.01,2013-02-13 02:15:00,
2013-02-12 21:17:00,35.6,24.6,29.83,NNW,328,0.0,0.0,64,0.00,,SKC,0.00,VWS V14.01,2013-02-13 02:17:00,
2013-02-12 21:19:00,35.5,24.5,29.83,WNW,294,0.0,0.0,64,0.00,,SKC,0.00,VWS V14.01,2013-02-13 02:19:00,
2013-02-12 21:20:00,35.5,24.5,29.83,NW,315,0.0,1.0,64,0.00,,SKC,0.00,VWS V14.01,2013-02-13 02:20:00,
2013-02-12 21:22:00,35.5,24.5,29.83,NW,316,0.0,1.0,64,0.00,,SKC,0.00,VWS V14.01,2013-02-13 02:22:00,
2013-02-12 21:24:00,35.5,24.5,29.83,NW,318,0.0,1.0,64,0.00,,SKC,0.00,VWS V14.01,2013-02-13 02:24:00,
2013-02-12 21:25:00,35.5,24.5,29.83,NW,318,0.0,1.0,64,0.00,,SKC,0.00,VWS V14.01,2013-02-13 02:25:00,
2013-02-12 21:26:00,35.5,24.5,29.83,NW,318,0.0,0.0,64,0.00,,SKC,0.00,VWS V14.01,2013-02-13 02:26:00,
2013-02-12 21:27:00,35.5,24.5,29.83,NW,320,0.0,0.0,64,0.00,,SKC,0.00,VWS V14.01,2013-02-13 02:27:00,
2013-02-12 21:29:00,35.5,24.5,29.83,WNW,301,0.0,0.0,64,0.00,,SKC,0.00,VWS V14.01,2013-02-13 02:29:00,
2013-02-12 21:30:00,35.5,24.5,29.83,WNW,302,0.0,0.0,64,0.00,,SKC,0.00,VWS V14.01,2013-02-13 02:30:00,
2013-02-12 21:31:00,35.5,24.5,29.83,WNW,288,0.0,0.0,64,0.00,,SKC,0.00,VWS V14.01,2013-02-13 02:31:00,
2013-02-12 21:32:00,35.5,24.5,29.83,WNW,288,0.0,0.0,64,0.00,,SKC,0.00,VWS V14.01,2013-02-13 02:32:00,
2013-02-12 21:34:00,35.3,24.7,29.83,WNW,292,0.0,0.0,65,0.00,,SKC,0.00,VWS V14.01,2013-02-13 02:34:00,
2013-02-12 21:35:00,35.3,24.7,29.83,WNW,292,0.0,0.0,65,0.00,,SKC,0.00,VWS V14.01,2013-02-13 02:35:00,
2013-02-12 21:36:00,35.3,24.7,29.83,WNW,291,0.0,0.0,65,0.00,,SKC,0.00,VWS V14.01,2013-02-13 02:36:00,
2013-02-12 21:38:00,35.2,24.6,29.83,WNW,291,0.0,0.0,65,0.00,,SKC,0.00,VWS V14.01,2013-02-13 02:38:00,
2013-02-12 21:39:00,35.0,24.4,29.83,WNW,291,0.0,0.0,65,0.00,,SKC,0.00,VWS V14.01,2013-02-13 02:39:00,
2013-02-12 21:40:00,35.0,24.4,29.83,WNW,291,0.0,0.0,65,0.00,,SKC,0.00,VWS V14.01,2013-02-13 02:40:00,
2013-02-12 21:41:00,35.0,24.4,29.83,WNW,291,0.0,0.0,65,0.00,,SKC,0.00,VWS V14.01,2013-02-13 02:41:00,
2013-02-12 21:43:00,34.9,24.3,29.83,WNW,289,0.0,0.0,65,0.00,,SKC,0.00,VWS V14.01,2013-02-13 02:43:00,
2013-02-12 21:45:00,34.7,24.1,29.81,WNW,289,0.0,0.0,65,0.00,,SKC,0.00,VWS V14.01,2013-02-13 02:45:00,
2013-02-12 21:48:00,34.6,24.4,29.81,WNW,291,0.0,0.0,66,0.00,,SKC,0.00,VWS V14.01,2013-02-13 02:48:00,
2013-02-12 21:50:00,34.6,24.4,29.81,WNW,292,0.0,0.0,66,0.00,,SKC,0.00,VWS V14.01,2013-02-13 02:50:00,
2013-02-12 21:53:00,34.4,24.6,29.81,WNW,292,0.0,0.0,67,0.00,,SKC,0.00,VWS V14.01,2013-02-13 02:53:00,
2013-02-12 21:55:00,34.3,24.5,29.81,WNW,292,0.0,0.0,67,0.00,,SKC,0.00,VWS V14.01,2013-02-13 02:55:00,
2013-02-12 21:56:00,34.3,24.5,29.81,WNW,292,0.0,0.0,67,0.00,,SKC,0.00,VWS V14.01,2013-02-13 02:56:00,
2013-02-12 21:58:00,34.3,24.5,29.81,WNW,292,0.0,0.0,67,0.00,,SKC,0.00,VWS V14.01,2013-02-13 02:58:00,
2013-02-12 22:00:00,34.1,24.3,29.82,WNW,294,0.0,0.0,67,0.00,,SKC,0.00,VWS V14.01,2013-02-13 03:00:00,
2013-02-12 22:01:00,34.1,24.3,29.82,WNW,294,0.0,0.0,67,0.00,,SKC,0.00,VWS V14.01,2013-02-13 03:01:00,
2013-02-12 22:03:00,34.0,24.2,29.82,WNW,291,0.0,0.0,67,0.00,,SKC,0.00,VWS V14.01,2013-02-13 03:03:00,
2013-02-12 22:04:00,34.0,24.2,29.82,WNW,292,0.0,0.0,67,0.00,,SKC,0.00,VWS V14.01,2013-02-13 03:04:00,
2013-02-12 22:05:00,34.0,24.2,29.82,WNW,291,0.0,0.0,67,0.00,,SKC,0.00,VWS V14.01,2013-02-13 03:05:00,
2013-02-12 22:06:00,34.0,24.2,29.82,WNW,291,0.0,0.0,67,0.00,,SKC,0.00,VWS V14.01,2013-02-13 03:06:00,
2013-02-12 22:09:00,33.8,24.0,29.82,WNW,291,0.0,0.0,67,0.00,,SKC,0.00,VWS V14.01,2013-02-13 03:09:00,
2013-02-12 22:10:00,33.8,24.0,29.82,WNW,289,0.0,0.0,67,0.00,,SKC,0.00,VWS V14.01,2013-02-13 03:10:00,
2013-02-12 22:11:00,33.7,23.9,29.82,WNW,288,0.0,0.0,67,0.00,,SKC,0.00,VWS V14.01,2013-02-13 03:11:00,
2013-02-12 22:14:00,33.7,23.9,29.81,WNW,289,0.0,0.0,67,0.00,,SKC,0.00,VWS V14.01,2013-02-13 03:14:00,
2013-02-12 22:15:00,33.7,23.9,29.81,WNW,292,0.0,0.0,67,0.00,,SKC,0.00,VWS V14.01,2013-02-13 03:15:00,
2013-02-12 22:16:00,33.5,23.7,29.81,WNW,292,0.0,0.0,67,0.00,,SKC,0.00,VWS V14.01,2013-02-13 03:16:00,
2013-02-12 22:17:00,33.5,23.7,29.81,WNW,292,0.0,0.0,67,0.00,,SKC,0.00,VWS V14.01,2013-02-13 03:17:00,
2013-02-12 22:19:00,33.4,24.0,29.81,WNW,289,0.0,0.0,68,0.00,,SKC,0.00,VWS V14.01,2013-02-13 03:19:00,
2013-02-12 22:20:00,33.4,24.0,29.81,WNW,292,0.0,0.0,68,0.00,,SKC,0.00,VWS V14.01,2013-02-13 03:20:00,
2013-02-12 22:21:00,33.2,23.8,29.81,WNW,292,0.0,0.0,68,0.00,,SKC,0.00,VWS V14.01,2013-02-13 03:21:00,
2013-02-12 22:22:00,33.2,23.8,29.81,WNW,291,0.0,0.0,68,0.00,,SKC,0.00,VWS V14.01,2013-02-13 03:22:00,
2013-02-12 22:25:00,33.1,23.7,29.81,WNW,291,0.0,0.0,68,0.00,,SKC,0.00,VWS V14.01,2013-02-13 03:25:00,
2013-02-12 22:26:00,33.1,23.7,29.81,WNW,291,0.0,0.0,68,0.00,,SKC,0.00,VWS V14.01,2013-02-13 03:26:00,
2013-02-12 22:27:00,33.1,23.7,29.81,WNW,294,0.0,0.0,68,0.00,,SKC,0.00,VWS V14.01,2013-02-13 03:27:00,
2013-02-12 22:30:00,32.8,23.8,29.81,WNW,291,0.0,0.0,69,0.00,,SKC,0.00,VWS V14.01,2013-02-13 03:30:00,
2013-02-12 22:31:00,32.8,23.8,29.81,WNW,289,0.0,0.0,69,0.00,,SKC,0.00,VWS V14.01,2013-02-13 03:31:00,
2013-02-12 22:32:00,32.7,24.0,29.81,WNW,292,0.0,0.0,70,0.00,,SKC,0.00,VWS V14.01,2013-02-13 03:32:00,
2013-02-12 22:35:00,32.5,23.8,29.81,WNW,292,0.0,0.0,70,0.00,,SKC,0.00,VWS V14.01,2013-02-13 03:35:00,
2013-02-12 22:36:00,32.4,24.1,29.81,WNW,291,0.0,0.0,71,0.00,,SKC,0.00,VWS V14.01,2013-02-13 03:36:00,
2013-02-12 22:37:00,32.4,24.1,29.81,WNW,291,0.0,0.0,71,0.00,,SKC,0.00,VWS V14.01,2013-02-13 03:37:00,
2013-02-12 22:40:00,32.2,24.2,29.81,WNW,292,0.0,0.0,72,0.00,,SKC,0.00,VWS V14.01,2013-02-13 03:40:00,
2013-02-12 22:41:00,32.1,24.1,29.81,WNW,291,0.0,0.0,72,0.00,,SKC,0.00,VWS V14.01,2013-02-13 03:41:00,
2013-02-12 22:42:00,31.9,23.9,29.81,WNW,292,0.0,0.0,72,0.00,,SKC,0.00,VWS V14.01,2013-02-13 03:42:00,
2013-02-12 22:45:00,31.9,23.9,29.79,WNW,289,0.0,0.0,72,0.00,,SKC,0.00,VWS V14.01,2013-02-13 03:45:00,
2013-02-12 22:46:00,31.8,24.1,29.79,WNW,291,0.0,0.0,73,0.00,,SKC,0.00,VWS V14.01,2013-02-13 03:46:00,
2013-02-12 22:47:00,31.6,24.0,29.79,WNW,289,0.0,0.0,73,0.00,,SKC,0.00,VWS V14.01,2013-02-13 03:47:00,
2013-02-12 22:48:00,31.6,24.0,29.79,WNW,291,0.0,0.0,73,0.00,,SKC,0.00,VWS V14.01,2013-02-13 03:48:00,
2013-02-12 22:50:00,31.5,23.9,29.79,WNW,291,0.0,0.0,73,0.00,,SKC,0.00,VWS V14.01,2013-02-13 03:50:00,
2013-02-12 22:51:00,31.3,23.7,29.79,WNW,291,0.0,0.0,73,0.00,,SKC,0.00,VWS V14.01,2013-02-13 03:51:00,
2013-02-12 22:52:00,31.3,24.0,29.79,WNW,292,0.0,0.0,74,0.00,,SKC,0.00,VWS V14.01,2013-02-13 03:52:00,
2013-02-12 22:53:00,31.3,24.0,29.79,WNW,291,0.0,0.0,74,0.00,,SKC,0.00,VWS V14.01,2013-02-13 03:53:00,
2013-02-12 22:55:00,31.2,23.9,29.79,WNW,292,0.0,0.0,74,0.00,,SKC,0.00,VWS V14.01,2013-02-13 03:55:00,
2013-02-12 22:56:00,31.2,23.9,29.79,WNW,289,0.0,0.0,74,0.00,,SKC,0.00,VWS V14.01,2013-02-13 03:56:00,
2013-02-12 22:57:00,31.0,23.7,29.79,WNW,292,0.0,0.0,74,0.00,,SKC,0.00,VWS V14.01,2013-02-13 03:57:00,
2013-02-12 22:59:00,31.0,23.7,29.79,WNW,289,0.0,0.0,74,0.00,,SKC,0.00,VWS V14.01,2013-02-13 03:59:00,
2013-02-12 23:00:00,31.0,23.7,29.79,WNW,289,0.0,0.0,74,0.00,,SKC,0.00,VWS V14.01,2013-02-13 04:00:00,
2013-02-12 23:01:00,30.9,23.9,29.79,WNW,289,0.0,0.0,75,0.00,,SKC,0.00,VWS V14.01,2013-02-13 04:01:00,
2013-02-12 23:02:00,30.9,23.9,29.79,WNW,291,0.0,0.0,75,0.00,,SKC,0.00,VWS V14.01,2013-02-13 04:02:00,
2013-02-12 23:03:00,30.9,23.9,29.79,WNW,291,0.0,0.0,75,0.00,,SKC,0.00,VWS V14.01,2013-02-13 04:03:00,
2013-02-12 23:04:00,30.9,24.2,29.79,WNW,294,0.0,0.0,76,0.00,,SKC,0.00,VWS V14.01,2013-02-13 04:04:00,
2013-02-12 23:05:00,30.9,24.2,29.79,WNW,289,0.0,0.0,76,0.00,,SKC,0.00,VWS V14.01,2013-02-13 04:05:00,
2013-02-12 23:06:00,30.9,24.2,29.79,WNW,289,0.0,0.0,76,0.00,,SKC,0.00,VWS V14.01,2013-02-13 04:06:00,
2013-02-12 23:08:00,30.9,23.9,29.79,WNW,291,0.0,0.0,75,0.00,,SKC,0.00,VWS V14.01,2013-02-13 04:08:00,
2013-02-12 23:09:00,30.9,23.9,29.79,WNW,292,0.0,0.0,75,0.00,,SKC,0.00,VWS V14.01,2013-02-13 04:09:00,
2013-02-12 23:10:00,30.9,23.9,29.79,WNW,291,0.0,0.0,75,0.00,,SKC,0.00,VWS V14.01,2013-02-13 04:10:00,
2013-02-12 23:12:00,31.0,24.0,29.79,WNW,292,0.0,0.0,75,0.00,,SKC,0.00,VWS V14.01,2013-02-13 04:12:00,
2013-02-12 23:13:00,31.0,24.0,29.79,WNW,291,0.0,0.0,75,0.00,,SKC,0.00,VWS V14.01,2013-02-13 04:13:00,
2013-02-12 23:15:00,31.0,24.0,29.79,WNW,292,0.0,0.0,75,0.00,,SKC,0.00,VWS V14.01,2013-02-13 04:15:00,
2013-02-12 23:17:00,31.0,24.0,29.79,WNW,288,0.0,0.0,75,0.00,,SKC,0.00,VWS V14.01,2013-02-13 04:17:00,
2013-02-12 23:18:00,31.0,23.7,29.79,WNW,288,0.0,0.0,74,0.00,,SKC,0.00,VWS V14.01,2013-02-13 04:18:00,
2013-02-12 23:20:00,31.2,23.9,29.79,WNW,288,0.0,0.0,74,0.00,,SKC,0.00,VWS V14.01,2013-02-13 04:20:00,
2013-02-12 23:22:00,31.3,24.0,29.79,WNW,291,0.0,0.0,74,0.00,,SKC,0.00,VWS V14.01,2013-02-13 04:22:00,
2013-02-12 23:23:00,31.3,24.0,29.79,WNW,289,0.0,0.0,74,0.00,,SKC,0.00,VWS V14.01,2013-02-13 04:23:00,
2013-02-12 23:25:00,31.5,24.2,29.79,WNW,291,0.0,0.0,74,0.00,,SKC,0.00,VWS V14.01,2013-02-13 04:25:00,
2013-02-12 23:27:00,31.5,24.2,29.79,WNW,291,0.0,0.0,74,0.00,,SKC,0.00,VWS V14.01,2013-02-13 04:27:00,
2013-02-12 23:28:00,31.5,23.9,29.79,WNW,291,0.0,0.0,73,0.00,,SKC,0.00,VWS V14.01,2013-02-13 04:28:00,
2013-02-12 23:30:00,31.6,24.0,29.80,WNW,291,0.0,0.0,73,0.00,,SKC,0.00,VWS V14.01,2013-02-13 04:30:00,
2013-02-12 23:31:00,31.6,24.0,29.80,WNW,292,0.0,0.0,73,0.00,,SKC,0.00,VWS V14.01,2013-02-13 04:31:00,
2013-02-12 23:32:00,31.6,24.0,29.80,WNW,291,0.0,0.0,73,0.00,,SKC,0.00,VWS V14.01,2013-02-13 04:32:00,
2013-02-12 23:33:00,31.6,24.0,29.80,WNW,292,0.0,0.0,73,0.00,,SKC,0.00,VWS V14.01,2013-02-13 04:33:00,
2013-02-12 23:35:00,31.6,23.6,29.80,WNW,292,0.0,0.0,72,0.00,,SKC,0.00,VWS V14.01,2013-02-13 04:35:00,
2013-02-12 23:36:00,31.6,23.6,29.80,WNW,291,0.0,0.0,72,0.00,,SKC,0.00,VWS V14.01,2013-02-13 04:36:00,
2013-02-12 23:37:00,31.6,23.6,29.80,WNW,292,0.0,0.0,72,0.00,,SKC,0.00,VWS V14.01,2013-02-13 04:37:00,
2013-02-12 23:38:00,31.6,23.6,29.80,WNW,292,0.0,0.0,72,0.00,,SKC,0.00,VWS V14.01,2013-02-13 04:38:00,
2013-02-12 23:39:00,31.6,23.6,29.80,WNW,291,0.0,0.0,72,0.00,,SKC,0.00,VWS V14.01,2013-02-13 04:39:00,
2013-02-12 23:40:00,31.6,23.3,29.81,WNW,289,0.0,1.0,71,0.00,,SKC,0.00,VWS V14.01,2013-02-13 04:40:00,
2013-02-12 23:41:00,31.5,23.5,29.80,WNW,291,0.0,0.0,72,0.00,,SKC,0.00,VWS V14.01,2013-02-13 04:41:00,
2013-02-12 23:42:00,31.5,23.5,29.80,WNW,292,0.0,0.0,72,0.00,,SKC,0.00,VWS V14.01,2013-02-13 04:42:00,
2013-02-12 23:43:00,31.5,23.5,29.81,WNW,292,0.0,0.0,72,0.00,,SKC,0.00,VWS V14.01,2013-02-13 04:43:00,
2013-02-12 23:44:00,31.5,23.5,29.81,WNW,292,0.0,0.0,72,0.00,,SKC,0.00,VWS V14.01,2013-02-13 04:44:00,
2013-02-12 23:45:00,31.5,23.9,29.81,WNW,292,0.0,0.0,73,0.00,,SKC,0.00,VWS V14.01,2013-02-13 04:45:00,
2013-02-12 23:47:00,31.3,23.7,29.81,WNW,292,0.0,0.0,73,0.00,,SKC,0.00,VWS V14.01,2013-02-13 04:47:00,
2013-02-12 23:49:00,31.2,23.6,29.81,WNW,291,0.0,0.0,73,0.00,,SKC,0.00,VWS V14.01,2013-02-13 04:49:00,
2013-02-12 23:50:00,31.2,23.6,29.81,WNW,291,0.0,0.0,73,0.00,,SKC,0.00,VWS V14.01,2013-02-13 04:50:00,
2013-02-12 23:52:00,31.2,23.6,29.81,WNW,291,0.0,0.0,73,0.00,,SKC,0.00,VWS V14.01,2013-02-13 04:52:00,
2013-02-12 23:53:00,31.3,23.7,29.81,WNW,295,0.0,0.0,73,0.00,,SKC,0.00,VWS V14.01,2013-02-13 04:53:00,
2013-02-12 23:54:00,31.3,23.7,29.81,WNW,292,0.0,0.0,73,0.00,,SKC,0.00,VWS V14.01,2013-02-13 04:54:00,
2013-02-12 23:55:00,31.3,23.7,29.81,WNW,291,0.0,0.0,73,0.00,,SKC,0.00,VWS V14.01,2013-02-13 04:55:00,
2013-02-12 23:57:00,31.5,23.5,29.81,WNW,291,0.0,0.0,72,0.00,,SKC,0.00,VWS V14.01,2013-02-13 04:57:00,
2013-02-12 23:58:00,31.6,23.6,29.81,WNW,291,0.0,0.0,72,0.00,,SKC,0.00,VWS V14.01,2013-02-13 04:58:00,
2013-02-12 23:59:00,31.6,23.6,29.81,WNW,291,0.0,0.0,72,0.00,,SKC,0.00,VWS V14.01,2013-02-13 04:59:00,